Wetterdaten: Freitag, 04.09.2020
Datum Zeit Temp. Aussen Temp. o. S. Temp +5cm Feuchte Auss Luftdruck Regen Sonnenschein Regendauer Solar Windben Empfang
04.09.2020 00:00 20,1 C 19,4 C 18,3 C 83 % 1019,3 hPa 0,0 l/m 0 min 0 min 0 W/m 19,3 km/h (3 Bft) 97,87 %
04.09.2020 00:02 20,1 C 19,4 C 18,3 C 83 % 1019,3 hPa 0,0 l/m 0 min 0 min 0 W/m 19,3 km/h (3 Bft) 97,30 %
04.09.2020 00:04 20,1 C 19,4 C 18,3 C 83 % 1019,3 hPa 0,0 l/m 0 min 0 min 0 W/m 22,5 km/h (4 Bft) 95,65 %
04.09.2020 00:07 20,1 C 19,4 C 18,3 C 83 % 1019,3 hPa 0,0 l/m 0 min 0 min 0 W/m 22,5 km/h (4 Bft) 94,81 %
04.09.2020 00:08 20,1 C 19,4 C 18,3 C 83 % 1019,3 hPa 0,0 l/m 0 min 0 min 0 W/m 22,5 km/h (4 Bft) 91,67 %
04.09.2020 00:10 20,2 C 19,4 C 18,3 C 83 % 1019,3 hPa 0,0 l/m 0 min 0 min 0 W/m 19,3 km/h (3 Bft) 91,67 %
04.09.2020 00:12 20,2 C 19,4 C 18,3 C 83 % 1019,3 hPa 0,0 l/m 0 min 0 min 0 W/m 25,7 km/h (4 Bft) 95,65 %
04.09.2020 00:14 20,2 C 19,4 C 18,3 C 83 % 1019,4 hPa 0,0 l/m 0 min 0 min 0 W/m 16,1 km/h (3 Bft) 95,83 %
04.09.2020 00:16 20,2 C 19,4 C 18,3 C 83 % 1019,3 hPa 0,0 l/m 0 min 0 min 0 W/m 16,1 km/h (3 Bft) 95,74 %
04.09.2020 00:18 20,2 C 19,4 C 18,3 C 83 % 1019,4 hPa 0,0 l/m 0 min 0 min 0 W/m 22,5 km/h (4 Bft) 97,92 %
04.09.2020 00:20 20,2 C 19,4 C 18,3 C 83 % 1019,4 hPa 0,0 l/m 0 min 0 min 0 W/m 22,5 km/h (4 Bft) 95,74 %
04.09.2020 00:22 20,2 C 19,4 C 18,3 C 83 % 1019,3 hPa 0,0 l/m 0 min 0 min 0 W/m 22,5 km/h (4 Bft) 97,92 %
04.09.2020 00:24 20,2 C 19,4 C 18,3 C 83 % 1019,4 hPa 0,0 l/m 0 min 0 min 0 W/m 32,2 km/h (5 Bft) 97,87 %
04.09.2020 00:26 20,2 C 19,4 C 18,3 C 83 % 1019,4 hPa 0,0 l/m 0 min 0 min 0 W/m 25,7 km/h (4 Bft) 95,74 %
04.09.2020 00:28 20,2 C 19,4 C 18,3 C 83 % 1019,3 hPa 0,0 l/m 0 min 0 min 0 W/m 19,3 km/h (3 Bft) 95,74 %
04.09.2020 00:30 20,2 C 19,4 C 18,3 C 83 % 1019,3 hPa 0,0 l/m 0 min 0 min 0 W/m 22,5 km/h (4 Bft) 97,87 %
04.09.2020 00:32 20,2 C 19,4 C 18,3 C 83 % 1019,3 hPa 0,0 l/m 0 min 0 min 0 W/m 16,1 km/h (3 Bft) 97,87 %
04.09.2020 00:34 20,2 C 19,4 C 18,3 C 83 % 1019,4 hPa 0,0 l/m 0 min 0 min 0 W/m 29,0 km/h (5 Bft) 95,74 %
04.09.2020 00:36 20,2 C 19,4 C 18,3 C 83 % 1019,3 hPa 0,0 l/m 0 min 0 min 0 W/m 19,3 km/h (3 Bft) 97,87 %
04.09.2020 00:38 20,2 C 19,4 C 18,3 C 83 % 1019,5 hPa 0,0 l/m 0 min 0 min 0 W/m 25,7 km/h (4 Bft) 97,87 %
04.09.2020 00:40 20,2 C 19,4 C 18,3 C 83 % 1019,5 hPa 0,0 l/m 0 min 0 min 0 W/m 35,4 km/h (5 Bft) 97,83 %
04.09.2020 00:42 20,2 C 19,4 C 18,3 C 83 % 1019,4 hPa 0,0 l/m 0 min 0 min 0 W/m 22,5 km/h (4 Bft) 97,87 %
04.09.2020 00:44 20,2 C 19,4 C 18,3 C 83 % 1019,4 hPa 0,0 l/m 0 min 0 min 0 W/m 19,3 km/h (3 Bft) 97,87 %
04.09.2020 00:46 20,2 C 19,4 C 18,3 C 83 % 1019,4 hPa 0,0 l/m 0 min 0 min 0 W/m 29,0 km/h (5 Bft) 97,87 %
04.09.2020 00:48 20,2 C 19,4 C 18,3 C 84 % 1019,4 hPa 0,0 l/m 0 min 0 min 0 W/m 19,3 km/h (3 Bft) 97,87 %
04.09.2020 00:50 20,2 C 19,4 C 18,3 C 84 % 1019,4 hPa 0,0 l/m 0 min 0 min 0 W/m 12,9 km/h (3 Bft) 97,87 %
04.09.2020 00:52 20,2 C 19,4 C 18,3 C 84 % 1019,5 hPa 0,0 l/m 0 min 0 min 0 W/m 19,3 km/h (3 Bft) 97,83 %
04.09.2020 00:54 20,2 C 19,4 C 18,3 C 84 % 1019,3 hPa 0,0 l/m 0 min 0 min 0 W/m 16,1 km/h (3 Bft) 97,62 %
04.09.2020 00:56 20,2 C 19,4 C 18,3 C 84 % 1019,5 hPa 0,0 l/m 0 min 0 min 0 W/m 29,0 km/h (5 Bft) 100,00 %
04.09.2020 00:58 20,2 C 19,4 C 18,3 C 84 % 1019,5 hPa 0,0 l/m 0 min 0 min 0 W/m 32,2 km/h (5 Bft) 100,00 %
04.09.2020 01:00 20,2 C 19,4 C 18,3 C 85 % 1019,5 hPa 0,0 l/m 0 min 0 min 0 W/m 22,5 km/h (4 Bft) 100,00 %
04.09.2020 01:02 20,2 C 19,4 C 18,3 C 85 % 1019,4 hPa 0,0 l/m 0 min 0 min 0 W/m 19,3 km/h (3 Bft) 97,87 %
04.09.2020 01:04 20,2 C 19,4 C 18,3 C 85 % 1019,4 hPa 0,0 l/m 0 min 0 min 0 W/m 19,3 km/h (3 Bft) 100,00 %
04.09.2020 01:06 20,2 C 18,9 C 18,3 C 85 % 1019,5 hPa 0,0 l/m 0 min 0 min 0 W/m 16,1 km/h (3 Bft) 100,00 %
04.09.2020 01:08 20,2 C 18,9 C 18,3 C 85 % 1019,5 hPa 0,0 l/m 0 min 0 min 0 W/m 16,1 km/h (3 Bft) 100,00 %
04.09.2020 01:10 20,2 C 18,9 C 18,3 C 85 % 1019,5 hPa 0,0 l/m 0 min 0 min 0 W/m 22,5 km/h (4 Bft) 100,00 %
04.09.2020 01:12 20,2 C 18,9 C 18,3 C 86 % 1019,5 hPa 0,0 l/m 0 min 0 min 0 W/m 19,3 km/h (3 Bft) 97,87 %
04.09.2020 01:14 20,2 C 18,9 C 18,3 C 86 % 1019,5 hPa 0,0 l/m 0 min 0 min 0 W/m 16,1 km/h (3 Bft) 97,87 %
04.09.2020 01:16 20,2 C 18,9 C 18,3 C 86 % 1019,5 hPa 0,0 l/m 0 min 0 min 0 W/m 19,3 km/h (3 Bft) 100,00 %
04.09.2020 01:18 20,2 C 18,9 C 18,3 C 86 % 1019,5 hPa 0,0 l/m 0 min 0 min 0 W/m 22,5 km/h (4 Bft) 100,00 %
04.09.2020 01:20 20,2 C 18,9 C 18,3 C 86 % 1019,5 hPa 0,0 l/m 0 min 0 min 0 W/m 16,1 km/h (3 Bft) 100,00 %
04.09.2020 01:22 20,2 C 18,9 C 18,3 C 86 % 1019,6 hPa 0,0 l/m 0 min 0 min 0 W/m 25,7 km/h (4 Bft) 100,00 %
04.09.2020 01:24 20,2 C 18,9 C 18,3 C 86 % 1019,6 hPa 0,0 l/m 0 min 0 min 0 W/m 12,9 km/h (3 Bft) 100,00 %
04.09.2020 01:26 20,1 C 18,9 C 18,3 C 86 % 1019,6 hPa 0,0 l/m 0 min 0 min 0 W/m 22,5 km/h (4 Bft) 100,00 %
04.09.2020 01:28 20,1 C 18,9 C 18,3 C 87 % 1019,6 hPa 0,0 l/m 0 min 0 min 0 W/m 22,5 km/h (4 Bft) 100,00 %
04.09.2020 01:30 20,1 C 18,9 C 18,3 C 87 % 1019,6 hPa 0,0 l/m 0 min 0 min 0 W/m 16,1 km/h (3 Bft) 100,00 %
04.09.2020 01:32 20,1 C 18,9 C 18,3 C 87 % 1019,6 hPa 0,0 l/m 0 min 0 min 0 W/m 12,9 km/h (3 Bft) 100,00 %
04.09.2020 01:34 20,1 C 18,9 C 18,3 C 87 % 1019,6 hPa 0,0 l/m 0 min 0 min 0 W/m 25,7 km/h (4 Bft) 100,00 %
04.09.2020 01:36 20,1 C 18,9 C 18,3 C 87 % 1019,5 hPa 0,0 l/m 0 min 0 min 0 W/m 19,3 km/h (3 Bft) 100,00 %
04.09.2020 01:38 20,1 C 18,9 C 18,3 C 87 % 1019,6 hPa 0,0 l/m 0 min 0 min 0 W/m 19,3 km/h (3 Bft) 100,00 %
04.09.2020 01:40 20,1 C 18,9 C 18,3 C 87 % 1019,6 hPa 0,0 l/m 0 min 0 min 0 W/m 16,1 km/h (3 Bft) 100,00 %
04.09.2020 01:42 20,1 C 18,9 C 18,3 C 87 % 1019,6 hPa 0,0 l/m 0 min 0 min 0 W/m 12,9 km/h (3 Bft) 100,00 %
04.09.2020 01:44 20,1 C 18,9 C 18,3 C 88 % 1019,6 hPa 0,0 l/m 0 min 0 min 0 W/m 9,7 km/h (2 Bft) 95,74 %
04.09.2020 01:46 20,1 C 18,9 C 18,3 C 88 % 1019,6 hPa 0,0 l/m 0 min 0 min 0 W/m 12,9 km/h (3 Bft) 100,00 %
04.09.2020 01:48 20,1 C 18,9 C 18,3 C 88 % 1019,6 hPa 0,0 l/m 0 min 0 min 0 W/m 19,3 km/h (3 Bft) 100,00 %
04.09.2020 01:50 20,1 C 18,9 C 18,3 C 88 % 1019,5 hPa 0,0 l/m 0 min 0 min 0 W/m 12,9 km/h (3 Bft) 97,92 %
04.09.2020 01:52 20,1 C 18,9 C 18,3 C 88 % 1019,6 hPa 0,0 l/m 0 min 0 min 0 W/m 16,1 km/h (3 Bft) 97,87 %
04.09.2020 01:54 20,0 C 18,9 C 18,3 C 88 % 1019,5 hPa 0,0 l/m 0 min 0 min 0 W/m 16,1 km/h (3 Bft) 97,87 %
04.09.2020 01:56 20,0 C 18,9 C 18,3 C 88 % 1019,5 hPa 0,0 l/m 0 min 0 min 0 W/m 12,9 km/h (3 Bft) 97,87 %
04.09.2020 01:58 20,0 C 18,9 C 18,3 C 88 % 1019,5 hPa 0,0 l/m 0 min 0 min 0 W/m 16,1 km/h (3 Bft) 97,87 %
04.09.2020 02:00 20,0 C 18,9 C 18,3 C 89 % 1019,5 hPa 0,0 l/m 0 min 0 min 0 W/m 19,3 km/h (3 Bft) 100,00 %
04.09.2020 02:02 20,0 C 18,9 C 18,3 C 89 % 1019,5 hPa 0,0 l/m 0 min 0 min 0 W/m 16,1 km/h (3 Bft) 93,48 %
04.09.2020 02:04 20,0 C 18,9 C 18,3 C 89 % 1019,5 hPa 0,0 l/m 0 min 0 min 0 W/m 16,1 km/h (3 Bft) 95,24 %
04.09.2020 02:06 19,9 C 18,9 C 18,3 C 89 % 1019,5 hPa 0,0 l/m 0 min 0 min 0 W/m 12,9 km/h (3 Bft) 100,00 %
04.09.2020 02:08 19,9 C 18,9 C 18,3 C 89 % 1019,4 hPa 0,0 l/m 0 min 0 min 0 W/m 12,9 km/h (3 Bft) 97,83 %
04.09.2020 02:10 19,9 C 18,9 C 18,3 C 89 % 1019,5 hPa 0,0 l/m 0 min 0 min 0 W/m 9,7 km/h (2 Bft) 97,87 %
04.09.2020 02:12 19,9 C 18,9 C 17,8 C 89 % 1019,5 hPa 0,0 l/m 0 min 0 min 0 W/m 9,7 km/h (2 Bft) 97,87 %
04.09.2020 02:14 19,9 C 18,9 C 17,8 C 89 % 1019,5 hPa 0,0 l/m 0 min 0 min 0 W/m 9,7 km/h (2 Bft) 97,92 %
04.09.2020 02:16 19,9 C 18,9 C 18,3 C 89 % 1019,6 hPa 0,0 l/m 0 min 0 min 0 W/m 12,9 km/h (3 Bft) 97,87 %
04.09.2020 02:18 19,9 C 18,9 C 18,3 C 89 % 1019,6 hPa 0,0 l/m 0 min 0 min 0 W/m 16,1 km/h (3 Bft) 97,87 %
04.09.2020 02:20 19,9 C 18,9 C 18,3 C 90 % 1019,5 hPa 0,0 l/m 0 min 0 min 0 W/m 12,9 km/h (3 Bft) 97,87 %
04.09.2020 02:22 19,9 C 18,9 C 18,3 C 90 % 1019,5 hPa 0,0 l/m 0 min 0 min 0 W/m 19,3 km/h (3 Bft) 95,74 %
04.09.2020 02:24 19,9 C 18,9 C 18,3 C 90 % 1019,6 hPa 0,0 l/m 0 min 0 min 0 W/m 12,9 km/h (3 Bft) 93,75 %
04.09.2020 02:26 19,9 C 18,9 C 18,3 C 90 % 1019,6 hPa 0,0 l/m 0 min 0 min 0 W/m 12,9 km/h (3 Bft) 97,87 %
04.09.2020 02:28 19,9 C 18,9 C 18,3 C 90 % 1019,6 hPa 0,0 l/m 0 min 0 min 0 W/m 19,3 km/h (3 Bft) 97,92 %
04.09.2020 02:30 19,9 C 18,9 C 18,3 C 90 % 1019,5 hPa 0,0 l/m 0 min 0 min 0 W/m 12,9 km/h (3 Bft) 97,83 %
04.09.2020 02:32 19,9 C 18,9 C 18,3 C 90 % 1019,6 hPa 0,0 l/m 0 min 0 min 0 W/m 12,9 km/h (3 Bft) 95,83 %
04.09.2020 02:34 19,9 C 18,9 C 18,3 C 90 % 1019,5 hPa 0,0 l/m 0 min 0 min 0 W/m 12,9 km/h (3 Bft) 97,87 %
04.09.2020 02:36 19,9 C 18,9 C 18,3 C 90 % 1019,5 hPa 0,0 l/m 0 min 0 min 0 W/m 16,1 km/h (3 Bft) 97,83 %
04.09.2020 02:38 19,8 C 18,9 C 18,3 C 90 % 1019,5 hPa 0,0 l/m 0 min 0 min 0 W/m 16,1 km/h (3 Bft) 100,00 %
04.09.2020 02:40 19,8 C 18,9 C 18,3 C 90 % 1019,5 hPa 0,0 l/m 0 min 0 min 0 W/m 19,3 km/h (3 Bft) 100,00 %
04.09.2020 02:42 19,8 C 18,9 C 18,3 C 90 % 1019,5 hPa 0,0 l/m 0 min 0 min 0 W/m 6,4 km/h (2 Bft) 100,00 %
04.09.2020 02:44 19,8 C 18,9 C 17,8 C 91 % 1019,5 hPa 0,0 l/m 0 min 0 min 0 W/m 9,7 km/h (2 Bft) 97,87 %
04.09.2020 02:46 19,8 C 18,9 C 17,8 C 91 % 1019,4 hPa 0,0 l/m 0 min 0 min 0 W/m 12,9 km/h (3 Bft) 95,74 %
04.09.2020 02:48 19,8 C 18,9 C 17,8 C 91 % 1019,5 hPa 0,0 l/m 0 min 0 min 0 W/m 12,9 km/h (3 Bft) 95,65 %
04.09.2020 02:50 19,8 C 18,9 C 18,3 C 91 % 1019,5 hPa 0,0 l/m 0 min 0 min 0 W/m 16,1 km/h (3 Bft) 97,87 %
04.09.2020 02:52 19,8 C 18,9 C 17,8 C 91 % 1019,5 hPa 0,0 l/m 0 min 0 min 0 W/m 12,9 km/h (3 Bft) 93,62 %
04.09.2020 02:54 19,8 C 18,9 C 17,8 C 91 % 1019,5 hPa 0,0 l/m 0 min 0 min 0 W/m 12,9 km/h (3 Bft) 97,87 %
04.09.2020 02:56 19,8 C 18,9 C 17,8 C 91 % 1019,6 hPa 0,0 l/m 0 min 0 min 0 W/m 29,0 km/h (5 Bft) 97,87 %
04.09.2020 02:58 19,8 C 18,9 C 18,3 C 91 % 1019,6 hPa 0,0 l/m 0 min 0 min 0 W/m 19,3 km/h (3 Bft) 97,87 %
04.09.2020 03:00 19,8 C 18,9 C 18,3 C 91 % 1019,6 hPa 0,0 l/m 0 min 0 min 0 W/m 16,1 km/h (3 Bft) 97,56 %
04.09.2020 03:02 19,8 C 18,9 C 17,8 C 91 % 1019,6 hPa 0,0 l/m 0 min 0 min 0 W/m 12,9 km/h (3 Bft) 95,74 %
04.09.2020 03:04 19,8 C 18,9 C 17,8 C 91 % 1019,6 hPa 0,0 l/m 0 min 0 min 0 W/m 6,4 km/h (2 Bft) 98,00 %
04.09.2020 03:06 19,8 C 18,9 C 17,8 C 91 % 1019,6 hPa 0,0 l/m 0 min 0 min 0 W/m 9,7 km/h (2 Bft) 97,83 %
04.09.2020 03:08 19,8 C 18,9 C 17,8 C 91 % 1019,6 hPa 0,0 l/m 0 min 0 min 0 W/m 19,3 km/h (3 Bft) 97,87 %
04.09.2020 03:10 19,8 C 18,9 C 17,8 C 91 % 1019,6 hPa 0,0 l/m 0 min 0 min 0 W/m 12,9 km/h (3 Bft) 95,74 %
04.09.2020 03:12 19,7 C 18,9 C 17,8 C 92 % 1019,6 hPa 0,0 l/m 0 min 0 min 0 W/m 19,3 km/h (3 Bft) 95,74 %
04.09.2020 03:14 19,7 C 18,9 C 18,3 C 92 % 1019,5 hPa 0,0 l/m 0 min 0 min 0 W/m 19,3 km/h (3 Bft) 93,75 %
04.09.2020 03:16 19,7 C 18,9 C 18,3 C 92 % 1019,6 hPa 0,0 l/m 0 min 0 min 0 W/m 16,1 km/h (3 Bft) 95,74 %
04.09.2020 03:18 19,7 C 18,9 C 18,3 C 92 % 1019,6 hPa 0,0 l/m 0 min 0 min 0 W/m 16,1 km/h (3 Bft) 95,74 %
04.09.2020 03:20 19,7 C 18,9 C 17,8 C 92 % 1019,6 hPa 0,0 l/m 0 min 0 min 0 W/m 3,2 km/h (1 Bft) 93,62 %
04.09.2020 03:22 19,7 C 18,9 C 17,8 C 92 % 1019,6 hPa 0,0 l/m 0 min 0 min 0 W/m 6,4 km/h (2 Bft) 91,49 %
04.09.2020 03:24 19,7 C 18,9 C 17,8 C 92 % 1019,6 hPa 0,0 l/m 0 min 0 min 0 W/m 12,9 km/h (3 Bft) 95,74 %
04.09.2020 03:26 19,7 C 18,9 C 17,8 C 92 % 1019,5 hPa 0,0 l/m 0 min 0 min 0 W/m 9,7 km/h (2 Bft) 91,49 %
04.09.2020 03:28 19,7 C 18,9 C 17,8 C 92 % 1019,5 hPa 0,0 l/m 0 min 0 min 0 W/m 12,9 km/h (3 Bft) 95,74 %
04.09.2020 03:30 19,7 C 18,9 C 18,3 C 92 % 1019,5 hPa 0,0 l/m 0 min 0 min 0 W/m 12,9 km/h (3 Bft) 95,74 %
04.09.2020 03:32 19,7 C 18,9 C 18,3 C 92 % 1019,5 hPa 0,0 l/m 0 min 0 min 0 W/m 12,9 km/h (3 Bft) 95,74 %
04.09.2020 03:34 19,7 C 18,9 C 18,3 C 92 % 1019,5 hPa 0,0 l/m 0 min 0 min 0 W/m 6,4 km/h (2 Bft) 93,48 %
04.09.2020 03:36 19,7 C 18,9 C 18,3 C 92 % 1019,6 hPa 0,0 l/m 0 min 0 min 0 W/m 16,1 km/h (3 Bft) 93,62 %
04.09.2020 03:38 19,7 C 18,9 C 18,3 C 92 % 1019,6 hPa 0,0 l/m 0 min 0 min 0 W/m 19,3 km/h (3 Bft) 95,74 %
04.09.2020 03:40 19,7 C 18,9 C 18,3 C 92 % 1019,6 hPa 0,0 l/m 0 min 0 min 0 W/m 16,1 km/h (3 Bft) 97,87 %
04.09.2020 03:42 19,7 C 18,9 C 18,3 C 92 % 1019,6 hPa 0,0 l/m 0 min 0 min 0 W/m 12,9 km/h (3 Bft) 93,62 %
04.09.2020 03:44 19,7 C 18,9 C 18,3 C 92 % 1019,6 hPa 0,0 l/m 0 min 0 min 0 W/m 22,5 km/h (4 Bft) 97,87 %
04.09.2020 03:46 19,7 C 18,9 C 18,3 C 92 % 1019,6 hPa 0,0 l/m 0 min 0 min 0 W/m 6,4 km/h (2 Bft) 97,83 %
04.09.2020 03:48 19,7 C 18,9 C 18,3 C 92 % 1019,5 hPa 0,0 l/m 0 min 0 min 0 W/m 12,9 km/h (3 Bft) 97,87 %
04.09.2020 03:50 19,7 C 18,9 C 18,3 C 92 % 1019,6 hPa 0,0 l/m 0 min 0 min 0 W/m 6,4 km/h (2 Bft) 95,74 %
04.09.2020 03:52 19,7 C 18,9 C 18,3 C 92 % 1019,6 hPa 0,0 l/m 0 min 0 min 0 W/m 9,7 km/h (2 Bft) 97,62 %
04.09.2020 03:54 19,7 C 18,9 C 18,3 C 92 % 1019,5 hPa 0,0 l/m 0 min 0 min 0 W/m 16,1 km/h (3 Bft) 97,87 %
04.09.2020 03:56 19,7 C 18,9 C 18,3 C 92 % 1019,5 hPa 0,0 l/m 0 min 0 min 0 W/m 16,1 km/h (3 Bft) 95,74 %
04.09.2020 03:58 19,7 C 18,9 C 18,3 C 92 % 1019,5 hPa 0,0 l/m 0 min 0 min 0 W/m 12,9 km/h (3 Bft) 97,87 %
04.09.2020 04:00 19,7 C 18,9 C 18,3 C 92 % 1019,5 hPa 0,0 l/m 0 min 0 min 0 W/m 19,3 km/h (3 Bft) 97,92 %
04.09.2020 04:05 19,7 C 18,9 C 18,3 C 92 % 1019,4 hPa 0,0 l/m 0 min 0 min 0 W/m 12,9 km/h (3 Bft) 100,00 %
04.09.2020 04:06 19,7 C 18,9 C 18,3 C 92 % 1019,4 hPa 0,0 l/m 0 min 0 min 0 W/m 6,4 km/h (2 Bft) 100,00 %
04.09.2020 04:08 19,7 C 18,9 C 18,3 C 92 % 1019,4 hPa 0,0 l/m 0 min 0 min 0 W/m 12,9 km/h (3 Bft) 100,00 %
04.09.2020 04:10 19,7 C 18,9 C 18,3 C 92 % 1019,4 hPa 0,0 l/m 0 min 0 min 0 W/m 16,1 km/h (3 Bft) 100,00 %
04.09.2020 04:12 19,7 C 18,9 C 18,3 C 92 % 1019,4 hPa 0,0 l/m 0 min 0 min 0 W/m 6,4 km/h (2 Bft) 100,00 %
04.09.2020 04:14 19,7 C 18,9 C 17,8 C 92 % 1019,4 hPa 0,0 l/m 0 min 0 min 0 W/m 12,9 km/h (3 Bft) 100,00 %
04.09.2020 04:16 19,7 C 18,9 C 18,3 C 92 % 1019,4 hPa 0,0 l/m 0 min 0 min 0 W/m 19,3 km/h (3 Bft) 97,83 %
04.09.2020 04:18 19,7 C 18,9 C 18,3 C 92 % 1019,4 hPa 0,0 l/m 0 min 0 min 0 W/m 12,9 km/h (3 Bft) 100,00 %
04.09.2020 04:20 19,7 C 18,9 C 18,3 C 92 % 1019,4 hPa 0,0 l/m 0 min 0 min 0 W/m 12,9 km/h (3 Bft) 97,87 %
04.09.2020 04:22 19,7 C 18,9 C 18,3 C 92 % 1019,4 hPa 0,0 l/m 0 min 0 min 0 W/m 6,4 km/h (2 Bft) 97,87 %
04.09.2020 04:24 19,7 C 18,9 C 18,3 C 92 % 1019,3 hPa 0,0 l/m 0 min 0 min 0 W/m 6,4 km/h (2 Bft) 100,00 %
04.09.2020 04:26 19,7 C 18,9 C 18,3 C 92 % 1019,3 hPa 0,0 l/m 0 min 0 min 0 W/m 9,7 km/h (2 Bft) 100,00 %
04.09.2020 04:28 19,7 C 18,9 C 17,8 C 92 % 1019,3 hPa 0,0 l/m 0 min 0 min 0 W/m 19,3 km/h (3 Bft) 100,00 %
04.09.2020 04:30 19,7 C 18,9 C 17,8 C 92 % 1019,3 hPa 0,0 l/m 0 min 0 min 0 W/m 6,4 km/h (2 Bft) 97,87 %
04.09.2020 04:32 19,7 C 18,9 C 17,8 C 92 % 1019,4 hPa 0,0 l/m 0 min 0 min 0 W/m 9,7 km/h (2 Bft) 95,74 %
04.09.2020 04:34 19,6 C 18,9 C 17,8 C 92 % 1019,4 hPa 0,0 l/m 0 min 0 min 0 W/m 22,5 km/h (4 Bft) 97,87 %
04.09.2020 04:36 19,6 C 18,9 C 17,8 C 92 % 1019,4 hPa 0,0 l/m 0 min 0 min 0 W/m 6,4 km/h (2 Bft) 97,87 %
04.09.2020 04:38 19,6 C 18,9 C 17,8 C 92 % 1019,4 hPa 0,0 l/m 0 min 0 min 0 W/m 12,9 km/h (3 Bft) 97,87 %
04.09.2020 04:40 19,6 C 18,9 C 17,8 C 92 % 1019,5 hPa 0,0 l/m 0 min 0 min 0 W/m 12,9 km/h (3 Bft) 95,65 %
04.09.2020 04:42 19,6 C 18,9 C 18,3 C 92 % 1019,5 hPa 0,0 l/m 0 min 0 min 0 W/m 12,9 km/h (3 Bft) 97,87 %
04.09.2020 04:44 19,6 C 18,9 C 18,3 C 92 % 1019,5 hPa 0,0 l/m 0 min 0 min 0 W/m 12,9 km/h (3 Bft) 97,87 %
04.09.2020 04:46 19,6 C 18,9 C 18,3 C 92 % 1019,6 hPa 0,0 l/m 0 min 0 min 0 W/m 6,4 km/h (2 Bft) 95,74 %
04.09.2020 04:48 19,6 C 18,9 C 18,3 C 92 % 1019,6 hPa 0,0 l/m 0 min 0 min 0 W/m 16,1 km/h (3 Bft) 97,87 %
04.09.2020 04:50 19,6 C 18,9 C 17,8 C 92 % 1019,5 hPa 0,0 l/m 0 min 0 min 0 W/m 6,4 km/h (2 Bft) 97,87 %
04.09.2020 04:52 19,6 C 18,9 C 17,8 C 92 % 1019,6 hPa 0,0 l/m 0 min 0 min 0 W/m 6,4 km/h (2 Bft) 95,65 %
04.09.2020 04:54 19,6 C 18,9 C 17,8 C 92 % 1019,6 hPa 0,0 l/m 0 min 0 min 0 W/m 9,7 km/h (2 Bft) 97,87 %
04.09.2020 04:56 19,6 C 18,9 C 17,8 C 92 % 1019,7 hPa 0,0 l/m 0 min 0 min 0 W/m 12,9 km/h (3 Bft) 95,74 %
04.09.2020 04:58 19,6 C 18,3 C 17,8 C 92 % 1019,6 hPa 0,0 l/m 0 min 0 min 0 W/m 12,9 km/h (3 Bft) 95,74 %
04.09.2020 05:00 19,6 C 18,3 C 17,8 C 92 % 1019,6 hPa 0,0 l/m 0 min 0 min 0 W/m 9,7 km/h (2 Bft) 97,87 %
04.09.2020 05:02 19,6 C 18,3 C 17,8 C 92 % 1019,7 hPa 0,0 l/m 0 min 0 min 0 W/m 9,7 km/h (2 Bft) 95,74 %
04.09.2020 05:04 19,6 C 18,9 C 17,8 C 92 % 1019,7 hPa 0,0 l/m 0 min 0 min 0 W/m 6,4 km/h (2 Bft) 95,65 %
04.09.2020 05:06 19,6 C 18,9 C 17,8 C 92 % 1019,8 hPa 0,0 l/m 0 min 0 min 0 W/m 16,1 km/h (3 Bft) 97,87 %
04.09.2020 05:08 19,6 C 18,9 C 17,8 C 92 % 1019,7 hPa 0,0 l/m 0 min 0 min 0 W/m 12,9 km/h (3 Bft) 97,87 %
04.09.2020 05:10 19,6 C 18,9 C 17,8 C 92 % 1019,7 hPa 0,0 l/m 0 min 0 min 0 W/m 12,9 km/h (3 Bft) 97,87 %
04.09.2020 05:12 19,6 C 18,9 C 17,8 C 92 % 1019,7 hPa 0,0 l/m 0 min 0 min 0 W/m 12,9 km/h (3 Bft) 97,87 %
04.09.2020 05:14 19,5 C 18,9 C 17,8 C 92 % 1019,7 hPa 0,0 l/m 0 min 2 min 0 W/m 12,9 km/h (3 Bft) 97,83 %
04.09.2020 05:16 19,6 C 18,3 C 17,8 C 92 % 1019,7 hPa 0,0 l/m 0 min 0 min 0 W/m 16,1 km/h (3 Bft) 100,00 %
04.09.2020 05:18 19,6 C 18,3 C 17,8 C 92 % 1019,8 hPa 0,0 l/m 0 min 0 min 0 W/m 16,1 km/h (3 Bft) 100,00 %
04.09.2020 05:20 19,6 C 18,3 C 17,8 C 92 % 1019,7 hPa 0,0 l/m 0 min 0 min 0 W/m 6,4 km/h (2 Bft) 100,00 %
04.09.2020 05:22 19,6 C 18,3 C 17,8 C 92 % 1019,7 hPa 0,0 l/m 0 min 0 min 0 W/m 16,1 km/h (3 Bft) 100,00 %
04.09.2020 05:24 19,5 C 18,3 C 17,8 C 92 % 1019,7 hPa 0,0 l/m 0 min 0 min 0 W/m 16,1 km/h (3 Bft) 100,00 %
04.09.2020 05:26 19,5 C 18,3 C 17,8 C 92 % 1019,7 hPa 0,0 l/m 0 min 0 min 0 W/m 19,3 km/h (3 Bft) 100,00 %
04.09.2020 05:28 19,5 C 18,3 C 17,8 C 92 % 1019,7 hPa 0,0 l/m 0 min 0 min 0 W/m 9,7 km/h (2 Bft) 100,00 %
04.09.2020 05:30 19,5 C 18,3 C 17,8 C 92 % 1019,7 hPa 0,0 l/m 0 min 0 min 0 W/m 16,1 km/h (3 Bft) 100,00 %
04.09.2020 05:32 19,4 C 18,3 C 17,8 C 92 % 1019,7 hPa 0,0 l/m 0 min 0 min 0 W/m 6,4 km/h (2 Bft) 100,00 %
04.09.2020 05:34 19,4 C 18,3 C 17,8 C 92 % 1019,8 hPa 0,0 l/m 0 min 0 min 0 W/m 6,4 km/h (2 Bft) 100,00 %
04.09.2020 05:36 19,4 C 18,3 C 17,8 C 92 % 1019,8 hPa 0,0 l/m 0 min 0 min 0 W/m 12,9 km/h (3 Bft) 100,00 %
04.09.2020 05:38 19,4 C 18,3 C 17,8 C 92 % 1019,8 hPa 0,0 l/m 0 min 0 min 0 W/m 9,7 km/h (2 Bft) 100,00 %
04.09.2020 05:40 19,4 C 18,3 C 17,8 C 92 % 1019,8 hPa 0,0 l/m 0 min 0 min 0 W/m 9,7 km/h (2 Bft) 100,00 %
04.09.2020 05:42 19,4 C 18,3 C 17,8 C 92 % 1019,8 hPa 0,0 l/m 0 min 0 min 0 W/m 9,7 km/h (2 Bft) 100,00 %
04.09.2020 05:44 19,4 C 18,3 C 17,8 C 92 % 1019,8 hPa 0,0 l/m 0 min 0 min 0 W/m 6,4 km/h (2 Bft) 100,00 %
04.09.2020 05:46 19,4 C 18,3 C 17,8 C 92 % 1019,8 hPa 0,0 l/m 0 min 0 min 0 W/m 9,7 km/h (2 Bft) 100,00 %
04.09.2020 05:48 19,4 C 18,3 C 17,8 C 92 % 1019,7 hPa 0,0 l/m 0 min 0 min 0 W/m 6,4 km/h (2 Bft) 100,00 %
04.09.2020 05:50 19,4 C 18,3 C 17,8 C 92 % 1019,8 hPa 0,0 l/m 0 min 0 min 0 W/m 9,7 km/h (2 Bft) 100,00 %
04.09.2020 05:52 19,4 C 18,3 C 17,8 C 92 % 1019,8 hPa 0,0 l/m 0 min 0 min 0 W/m 12,9 km/h (3 Bft) 97,87 %
04.09.2020 05:54 19,4 C 18,3 C 17,8 C 92 % 1019,7 hPa 0,0 l/m 0 min 0 min 0 W/m 0,0 km/h (0 Bft) 100,00 %
04.09.2020 05:56 19,4 C 18,3 C 17,8 C 92 % 1019,8 hPa 0,0 l/m 0 min 0 min 0 W/m 0,0 km/h (0 Bft) 97,87 %
04.09.2020 05:58 19,4 C 18,3 C 17,8 C 92 % 1019,8 hPa 0,0 l/m 0 min 0 min 0 W/m 6,4 km/h (2 Bft) 97,87 %
04.09.2020 06:00 19,4 C 18,3 C 17,8 C 92 % 1019,8 hPa 0,0 l/m 0 min 0 min 0 W/m 3,2 km/h (1 Bft) 100,00 %
04.09.2020 06:02 19,3 C 18,3 C 17,8 C 92 % 1019,8 hPa 0,0 l/m 0 min 0 min 0 W/m 6,4 km/h (2 Bft) 97,83 %
04.09.2020 06:04 19,3 C 18,3 C 17,8 C 92 % 1019,8 hPa 0,0 l/m 0 min 0 min 0 W/m 6,4 km/h (2 Bft) 97,87 %
04.09.2020 06:08 19,3 C 18,3 C 17,8 C 93 % 1019,9 hPa 0,0 l/m 0 min 0 min 0 W/m 6,4 km/h (2 Bft) 95,74 %
04.09.2020 06:10 19,3 C 18,3 C 17,8 C 93 % 1019,9 hPa 0,0 l/m 0 min 0 min 0 W/m 6,4 km/h (2 Bft) 95,74 %
04.09.2020 06:12 19,3 C 18,3 C 17,8 C 93 % 1019,9 hPa 0,0 l/m 0 min 0 min 0 W/m 9,7 km/h (2 Bft) 97,87 %
04.09.2020 06:14 19,3 C 18,3 C 17,8 C 93 % 1019,9 hPa 0,0 l/m 0 min 0 min 0 W/m 6,4 km/h (2 Bft) 97,83 %
04.09.2020 06:16 19,3 C 17,8 C 17,8 C 93 % 1019,9 hPa 0,0 l/m 0 min 2 min 0 W/m 12,9 km/h (3 Bft) 95,74 %
04.09.2020 06:18 19,3 C 17,2 C 17,2 C 93 % 1020,0 hPa 0,0 l/m 0 min 2 min 0 W/m 16,1 km/h (3 Bft) 93,62 %
04.09.2020 06:20 19,3 C 17,2 C 17,2 C 93 % 1020,0 hPa 0,0 l/m 0 min 2 min 0 W/m 6,4 km/h (2 Bft) 95,74 %
04.09.2020 06:22 19,3 C 17,2 C 17,2 C 93 % 1020,0 hPa 0,0 l/m 0 min 2 min 0 W/m 12,9 km/h (3 Bft) 95,74 %
04.09.2020 06:24 19,3 C 17,2 C 17,2 C 93 % 1020,0 hPa 0,0 l/m 0 min 2 min 0 W/m 6,4 km/h (2 Bft) 95,65 %
04.09.2020 06:26 19,3 C 17,2 C 17,2 C 93 % 1020,0 hPa 0,2 l/m 0 min 2 min 0 W/m 6,4 km/h (2 Bft) 95,74 %
04.09.2020 06:28 19,3 C 17,2 C 17,2 C 93 % 1020,0 hPa 0,0 l/m 0 min 0 min 0 W/m 12,9 km/h (3 Bft) 97,87 %
04.09.2020 06:30 19,3 C 17,2 C 17,2 C 94 % 1020,0 hPa 0,0 l/m 0 min 0 min 0 W/m 9,7 km/h (2 Bft) 97,87 %
04.09.2020 06:32 19,2 C 17,2 C 17,2 C 94 % 1020,1 hPa 0,0 l/m 0 min 2 min 0 W/m 6,4 km/h (2 Bft) 95,74 %
04.09.2020 06:34 19,2 C 16,7 C 16,7 C 94 % 1020,1 hPa 0,0 l/m 0 min 0 min 0 W/m 3,2 km/h (1 Bft) 95,74 %
04.09.2020 06:36 19,2 C 16,7 C 16,7 C 94 % 1020,1 hPa 0,0 l/m 0 min 0 min 0 W/m 3,2 km/h (1 Bft) 95,65 %
04.09.2020 06:38 19,2 C 16,7 C 16,7 C 94 % 1020,1 hPa 0,0 l/m 0 min 0 min 0 W/m 3,2 km/h (1 Bft) 95,74 %
04.09.2020 06:40 19,2 C 16,7 C 16,7 C 94 % 1020,1 hPa 0,0 l/m 0 min 0 min 0 W/m 6,4 km/h (2 Bft) 95,74 %
04.09.2020 06:42 19,1 C 16,7 C 16,7 C 94 % 1020,1 hPa 0,0 l/m 0 min 0 min 0 W/m 3,2 km/h (1 Bft) 93,62 %
04.09.2020 06:44 19,1 C 16,7 C 16,7 C 94 % 1020,1 hPa 0,0 l/m 0 min 0 min 0 W/m 3,2 km/h (1 Bft) 95,74 %
04.09.2020 06:46 19,1 C 16,7 C 16,7 C 94 % 1020,1 hPa 0,0 l/m 0 min 0 min 0 W/m 3,2 km/h (1 Bft) 95,74 %
04.09.2020 06:48 19,1 C 16,7 C 16,7 C 94 % 1020,1 hPa 0,2 l/m 0 min 0 min 0 W/m 3,2 km/h (1 Bft) 95,65 %
04.09.2020 06:50 19,1 C 16,7 C 16,7 C 94 % 1020,2 hPa 0,0 l/m 0 min 0 min 0 W/m 0,0 km/h (0 Bft) 93,62 %
04.09.2020 06:52 19,1 C 16,7 C 16,7 C 94 % 1020,2 hPa 0,0 l/m 0 min 0 min 0 W/m 3,2 km/h (1 Bft) 95,74 %
04.09.2020 06:54 19,0 C 17,2 C 16,7 C 94 % 1020,2 hPa 0,0 l/m 0 min 0 min 0 W/m 3,2 km/h (1 Bft) 95,74 %
04.09.2020 06:56 19,0 C 17,2 C 16,7 C 95 % 1020,2 hPa 0,0 l/m 0 min 0 min 0 W/m 0,0 km/h (0 Bft) 97,87 %
04.09.2020 06:58 18,9 C 17,2 C 16,7 C 95 % 1020,2 hPa 0,0 l/m 0 min 0 min 0 W/m 0,0 km/h (0 Bft) 93,62 %
04.09.2020 07:00 18,9 C 17,2 C 16,7 C 95 % 1020,2 hPa 0,0 l/m 0 min 0 min 0 W/m 0,0 km/h (0 Bft) 95,65 %
04.09.2020 07:02 18,9 C 17,2 C 16,7 C 95 % 1020,3 hPa 0,0 l/m 0 min 0 min 0 W/m 3,2 km/h (1 Bft) 93,62 %
04.09.2020 07:04 18,9 C 17,2 C 16,7 C 95 % 1020,2 hPa 0,0 l/m 0 min 2 min 0 W/m 0,0 km/h (0 Bft) 95,74 %
04.09.2020 07:06 18,9 C 17,2 C 16,7 C 95 % 1020,3 hPa 0,0 l/m 0 min 0 min 0 W/m 0,0 km/h (0 Bft) 97,87 %
04.09.2020 07:08 18,9 C 17,2 C 16,7 C 95 % 1020,3 hPa 0,0 l/m 0 min 0 min 0 W/m 0,0 km/h (0 Bft) 97,87 %
04.09.2020 07:10 18,9 C 17,2 C 16,7 C 95 % 1020,3 hPa 0,0 l/m 0 min 2 min 0 W/m 0,0 km/h (0 Bft) 95,74 %
04.09.2020 07:12 18,9 C 17,2 C 16,7 C 95 % 1020,3 hPa 0,0 l/m 0 min 2 min 0 W/m 0,0 km/h (0 Bft) 97,83 %
04.09.2020 07:14 18,8 C 17,2 C 16,7 C 95 % 1020,4 hPa 0,2 l/m 0 min 2 min 0 W/m 0,0 km/h (0 Bft) 97,87 %
04.09.2020 07:16 18,8 C 17,2 C 16,7 C 95 % 1020,3 hPa 0,2 l/m 0 min 2 min 0 W/m 6,4 km/h (2 Bft) 95,74 %
04.09.2020 07:18 18,8 C 17,2 C 16,7 C 96 % 1020,3 hPa 0,2 l/m 0 min 2 min 0 W/m 3,2 km/h (1 Bft) 95,74 %
04.09.2020 07:20 18,8 C 17,2 C 16,7 C 96 % 1020,3 hPa 0,0 l/m 0 min 2 min 2 W/m 6,4 km/h (2 Bft) 97,87 %
04.09.2020 07:22 18,8 C 17,2 C 16,7 C 96 % 1020,3 hPa 0,2 l/m 0 min 0 min 1 W/m 0,0 km/h (0 Bft) 97,87 %
04.09.2020 07:24 18,8 C 17,2 C 16,7 C 96 % 1020,3 hPa 0,0 l/m 0 min 0 min 1 W/m 6,4 km/h (2 Bft) 97,83 %
04.09.2020 07:26 18,8 C 17,2 C 16,7 C 96 % 1020,3 hPa 0,0 l/m 0 min 0 min 7 W/m 3,2 km/h (1 Bft) 95,74 %
04.09.2020 07:28 18,8 C 17,2 C 16,7 C 96 % 1020,3 hPa 0,0 l/m 0 min 0 min 12 W/m 0,0 km/h (0 Bft) 93,62 %
04.09.2020 07:30 18,8 C 17,2 C 16,7 C 96 % 1020,4 hPa 0,0 l/m 0 min 0 min 15 W/m 6,4 km/h (2 Bft) 97,87 %
04.09.2020 07:32 18,8 C 17,2 C 16,7 C 96 % 1020,4 hPa 0,0 l/m 0 min 0 min 15 W/m 0,0 km/h (0 Bft) 97,87 %
04.09.2020 07:34 18,8 C 17,2 C 16,7 C 96 % 1020,4 hPa 0,0 l/m 0 min 0 min 14 W/m 3,2 km/h (1 Bft) 95,65 %
04.09.2020 07:36 18,8 C 17,2 C 16,7 C 96 % 1020,4 hPa 0,0 l/m 0 min 0 min 16 W/m 3,2 km/h (1 Bft) 97,87 %
04.09.2020 07:38 18,8 C 17,2 C 16,7 C 96 % 1020,4 hPa 0,0 l/m 0 min 0 min 20 W/m 6,4 km/h (2 Bft) 97,87 %
04.09.2020 07:40 18,8 C 17,2 C 16,7 C 96 % 1020,4 hPa 0,0 l/m 0 min 0 min 25 W/m 0,0 km/h (0 Bft) 97,87 %
04.09.2020 07:42 18,7 C 17,2 C 16,7 C 96 % 1020,5 hPa 0,0 l/m 0 min 0 min 30 W/m 6,4 km/h (2 Bft) 97,87 %
04.09.2020 07:44 18,7 C 17,2 C 16,7 C 96 % 1020,5 hPa 0,0 l/m 0 min 0 min 32 W/m 6,4 km/h (2 Bft) 97,87 %
04.09.2020 07:46 18,7 C 17,2 C 16,7 C 96 % 1020,5 hPa 0,0 l/m 0 min 0 min 29 W/m 0,0 km/h (0 Bft) 97,83 %
04.09.2020 07:48 18,7 C 17,2 C 16,7 C 97 % 1020,4 hPa 0,0 l/m 0 min 0 min 26 W/m 0,0 km/h (0 Bft) 97,87 %
04.09.2020 07:50 18,7 C 17,2 C 16,7 C 97 % 1020,5 hPa 0,0 l/m 0 min 0 min 21 W/m 0,0 km/h (0 Bft) 97,87 %
04.09.2020 07:52 18,7 C 17,2 C 16,7 C 97 % 1020,5 hPa 0,0 l/m 0 min 0 min 18 W/m 0,0 km/h (0 Bft) 95,74 %
04.09.2020 07:54 18,7 C 17,2 C 16,7 C 97 % 1020,5 hPa 0,0 l/m 0 min 0 min 16 W/m 0,0 km/h (0 Bft) 97,87 %
04.09.2020 07:56 18,7 C 17,2 C 16,7 C 97 % 1020,5 hPa 0,2 l/m 0 min 0 min 14 W/m 0,0 km/h (0 Bft) 100,00 %
04.09.2020 07:58 18,7 C 17,2 C 16,7 C 97 % 1020,5 hPa 0,0 l/m 0 min 0 min 14 W/m 9,7 km/h (2 Bft) 100,00 %
04.09.2020 08:00 18,7 C 17,2 C 16,7 C 97 % 1020,5 hPa 0,0 l/m 0 min 2 min 14 W/m 9,7 km/h (2 Bft) 97,87 %
04.09.2020 08:02 18,7 C 17,2 C 16,7 C 97 % 1020,6 hPa 0,0 l/m 0 min 0 min 11 W/m 9,7 km/h (2 Bft) 100,00 %
04.09.2020 08:04 18,7 C 17,2 C 16,7 C 97 % 1020,5 hPa 0,0 l/m 0 min 0 min 8 W/m 6,4 km/h (2 Bft) 95,74 %
04.09.2020 08:06 18,7 C 17,2 C 16,7 C 97 % 1020,6 hPa 0,0 l/m 0 min 0 min 10 W/m 0,0 km/h (0 Bft) 100,00 %
04.09.2020 08:08 18,6 C 17,2 C 16,7 C 97 % 1020,5 hPa 0,0 l/m 0 min 0 min 12 W/m 0,0 km/h (0 Bft) 100,00 %
04.09.2020 08:10 18,6 C 17,2 C 16,7 C 97 % 1020,6 hPa 0,0 l/m 0 min 0 min 12 W/m 0,0 km/h (0 Bft) 100,00 %
04.09.2020 08:12 18,6 C 17,2 C 16,7 C 97 % 1020,6 hPa 0,0 l/m 0 min 0 min 13 W/m 0,0 km/h (0 Bft) 100,00 %
04.09.2020 08:14 18,6 C 17,2 C 16,7 C 97 % 1020,6 hPa 0,0 l/m 0 min 0 min 14 W/m 0,0 km/h (0 Bft) 100,00 %
04.09.2020 08:16 18,6 C 17,2 C 16,7 C 97 % 1020,7 hPa 0,2 l/m 0 min 2 min 13 W/m 3,2 km/h (1 Bft) 100,00 %
04.09.2020 08:18 18,6 C 17,2 C 16,7 C 97 % 1020,6 hPa 0,0 l/m 0 min 2 min 16 W/m 3,2 km/h (1 Bft) 100,00 %
04.09.2020 08:20 18,6 C 17,2 C 16,7 C 97 % 1020,7 hPa 0,2 l/m 0 min 2 min 18 W/m 3,2 km/h (1 Bft) 100,00 %
04.09.2020 08:22 18,6 C 17,2 C 16,7 C 97 % 1020,6 hPa 0,0 l/m 0 min 0 min 26 W/m 9,7 km/h (2 Bft) 100,00 %
04.09.2020 08:24 18,6 C 17,2 C 16,7 C 97 % 1020,7 hPa 0,0 l/m 0 min 0 min 34 W/m 0,0 km/h (0 Bft) 100,00 %
04.09.2020 08:26 18,6 C 17,2 C 16,7 C 97 % 1020,7 hPa 0,0 l/m 0 min 0 min 30 W/m 0,0 km/h (0 Bft) 100,00 %
04.09.2020 08:28 18,6 C 17,2 C 16,7 C 98 % 1020,7 hPa 0,0 l/m 0 min 0 min 20 W/m 6,4 km/h (2 Bft) 100,00 %
04.09.2020 08:30 18,5 C 17,2 C 16,7 C 98 % 1020,7 hPa 0,0 l/m 0 min 0 min 24 W/m 0,0 km/h (0 Bft) 100,00 %
04.09.2020 08:32 18,6 C 17,2 C 16,7 C 98 % 1020,7 hPa 0,0 l/m 0 min 0 min 31 W/m 0,0 km/h (0 Bft) 100,00 %
04.09.2020 08:34 18,6 C 17,2 C 16,7 C 98 % 1020,8 hPa 0,0 l/m 0 min 0 min 36 W/m 3,2 km/h (1 Bft) 100,00 %
04.09.2020 08:36 18,6 C 17,2 C 16,7 C 98 % 1020,7 hPa 0,0 l/m 0 min 0 min 40 W/m 0,0 km/h (0 Bft) 100,00 %
04.09.2020 08:38 18,6 C 17,2 C 16,7 C 98 % 1020,7 hPa 0,0 l/m 0 min 0 min 46 W/m 6,4 km/h (2 Bft) 100,00 %
04.09.2020 08:40 18,6 C 17,2 C 16,7 C 98 % 1020,7 hPa 0,0 l/m 0 min 0 min 43 W/m 0,0 km/h (0 Bft) 100,00 %
04.09.2020 08:42 18,6 C 17,2 C 16,7 C 98 % 1020,7 hPa 0,0 l/m 0 min 0 min 46 W/m 3,2 km/h (1 Bft) 100,00 %
04.09.2020 08:44 18,6 C 17,2 C 16,7 C 98 % 1020,8 hPa 0,0 l/m 0 min 0 min 54 W/m 6,4 km/h (2 Bft) 100,00 %
04.09.2020 08:46 18,6 C 17,2 C 17,2 C 98 % 1020,8 hPa 0,0 l/m 0 min 0 min 67 W/m 3,2 km/h (1 Bft) 100,00 %
04.09.2020 08:48 18,6 C 17,2 C 17,2 C 98 % 1020,8 hPa 0,0 l/m 0 min 0 min 58 W/m 6,4 km/h (2 Bft) 100,00 %
04.09.2020 08:50 18,6 C 17,2 C 17,2 C 98 % 1020,7 hPa 0,0 l/m 0 min 0 min 51 W/m 9,7 km/h (2 Bft) 100,00 %
04.09.2020 08:52 18,6 C 17,8 C 17,2 C 98 % 1020,7 hPa 0,0 l/m 0 min 0 min 78 W/m 12,9 km/h (3 Bft) 97,87 %
04.09.2020 08:54 18,6 C 17,8 C 17,2 C 98 % 1020,7 hPa 0,0 l/m 0 min 0 min 80 W/m 12,9 km/h (3 Bft) 100,00 %
04.09.2020 08:56 18,6 C 17,8 C 17,2 C 98 % 1020,8 hPa 0,0 l/m 0 min 0 min 67 W/m 19,3 km/h (3 Bft) 100,00 %
04.09.2020 08:58 18,6 C 17,8 C 17,2 C 98 % 1020,8 hPa 0,0 l/m 0 min 0 min 61 W/m 0,0 km/h (0 Bft) 100,00 %
04.09.2020 09:00 18,6 C 17,8 C 17,2 C 98 % 1020,8 hPa 0,0 l/m 0 min 0 min 70 W/m 0,0 km/h (0 Bft) 100,00 %
04.09.2020 09:02 18,6 C 17,8 C 17,2 C 98 % 1020,9 hPa 0,0 l/m 0 min 0 min 56 W/m 3,2 km/h (1 Bft) 95,74 %
04.09.2020 09:04 18,7 C 17,8 C 17,2 C 98 % 1020,9 hPa 0,0 l/m 0 min 0 min 48 W/m 0,0 km/h (0 Bft) 100,00 %
04.09.2020 09:06 18,7 C 17,8 C 17,2 C 98 % 1020,9 hPa 0,0 l/m 0 min 0 min 63 W/m 3,2 km/h (1 Bft) 100,00 %
04.09.2020 09:08 18,7 C 17,8 C 17,2 C 99 % 1020,9 hPa 0,0 l/m 0 min 0 min 64 W/m 16,1 km/h (3 Bft) 100,00 %
04.09.2020 09:10 18,7 C 17,8 C 17,2 C 99 % 1021,0 hPa 0,0 l/m 0 min 0 min 60 W/m 6,4 km/h (2 Bft) 97,83 %
04.09.2020 09:12 18,7 C 17,2 C 17,2 C 99 % 1021,0 hPa 0,0 l/m 0 min 0 min 44 W/m 6,4 km/h (2 Bft) 95,74 %
04.09.2020 09:14 18,7 C 17,2 C 17,2 C 99 % 1021,0 hPa 0,0 l/m 0 min 0 min 38 W/m 16,1 km/h (3 Bft) 100,00 %
04.09.2020 09:16 18,7 C 17,2 C 17,2 C 99 % 1021,0 hPa 0,0 l/m 0 min 0 min 41 W/m 12,9 km/h (3 Bft) 100,00 %
04.09.2020 09:18 18,7 C 17,2 C 17,2 C 99 % 1021,0 hPa 0,0 l/m 0 min 0 min 53 W/m 6,4 km/h (2 Bft) 100,00 %
04.09.2020 09:20 18,6 C 17,8 C 17,2 C 99 % 1021,0 hPa 0,0 l/m 0 min 0 min 77 W/m 9,7 km/h (2 Bft) 97,87 %
04.09.2020 09:22 18,7 C 17,8 C 17,2 C 99 % 1021,1 hPa 0,0 l/m 0 min 0 min 86 W/m 12,9 km/h (3 Bft) 100,00 %
04.09.2020 09:24 18,7 C 17,8 C 17,2 C 99 % 1021,1 hPa 0,0 l/m 0 min 0 min 66 W/m 0,0 km/h (0 Bft) 97,87 %
04.09.2020 09:26 18,7 C 17,8 C 17,2 C 99 % 1021,0 hPa 0,0 l/m 0 min 0 min 55 W/m 9,7 km/h (2 Bft) 95,74 %
04.09.2020 09:28 18,7 C 17,8 C 17,2 C 99 % 1021,1 hPa 0,0 l/m 0 min 0 min 69 W/m 3,2 km/h (1 Bft) 97,87 %
04.09.2020 09:30 18,7 C 17,8 C 17,2 C 99 % 1021,1 hPa 0,0 l/m 0 min 0 min 67 W/m 16,1 km/h (3 Bft) 95,74 %
04.09.2020 09:32 18,7 C 17,8 C 17,2 C 99 % 1021,1 hPa 0,0 l/m 0 min 0 min 57 W/m 6,4 km/h (2 Bft) 94,29 %
04.09.2020 09:34 18,7 C 17,8 C 17,2 C 99 % 1021,1 hPa 0,0 l/m 0 min 0 min 57 W/m 3,2 km/h (1 Bft) 95,74 %
04.09.2020 09:36 18,7 C 17,8 C 17,2 C 99 % 1021,1 hPa 0,0 l/m 0 min 0 min 58 W/m 6,4 km/h (2 Bft) 95,74 %
04.09.2020 09:38 18,7 C 17,8 C 17,2 C 99 % 1021,2 hPa 0,0 l/m 0 min 0 min 55 W/m 0,0 km/h (0 Bft) 95,74 %
04.09.2020 09:40 18,7 C 17,8 C 17,2 C 99 % 1021,2 hPa 0,0 l/m 0 min 0 min 66 W/m 0,0 km/h (0 Bft) 95,74 %
04.09.2020 09:42 18,7 C 17,8 C 17,2 C 99 % 1021,2 hPa 0,0 l/m 0 min 0 min 65 W/m 6,4 km/h (2 Bft) 95,65 %
04.09.2020 09:44 18,7 C 17,8 C 17,2 C 99 % 1021,3 hPa 0,0 l/m 0 min 0 min 46 W/m 3,2 km/h (1 Bft) 95,74 %
04.09.2020 09:46 18,7 C 17,8 C 17,2 C 99 % 1021,2 hPa 0,0 l/m 0 min 0 min 36 W/m 3,2 km/h (1 Bft) 93,62 %
04.09.2020 09:48 18,7 C 17,8 C 17,2 C 99 % 1021,2 hPa 0,0 l/m 0 min 0 min 28 W/m 3,2 km/h (1 Bft) 93,62 %
04.09.2020 09:50 18,7 C 17,8 C 17,2 C 99 % 1021,3 hPa 0,0 l/m 0 min 0 min 28 W/m 3,2 km/h (1 Bft) 91,49 %
04.09.2020 09:52 18,7 C 17,2 C 16,7 C 99 % 1021,3 hPa 0,0 l/m 0 min 0 min 27 W/m 6,4 km/h (2 Bft) 93,62 %
04.09.2020 09:54 18,6 C 17,2 C 16,7 C 99 % 1021,3 hPa 0,0 l/m 0 min 0 min 22 W/m 6,4 km/h (2 Bft) 93,48 %
04.09.2020 09:56 18,5 C 16,7 C 16,7 C 99 % 1021,3 hPa 0,0 l/m 0 min 0 min 35 W/m 3,2 km/h (1 Bft) 93,62 %
04.09.2020 09:58 18,4 C 16,7 C 16,7 C 99 % 1021,4 hPa 0,0 l/m 0 min 0 min 32 W/m 3,2 km/h (1 Bft) 93,62 %
04.09.2020 10:00 18,3 C 16,7 C 16,7 C 99 % 1021,3 hPa 0,0 l/m 0 min 2 min 35 W/m 3,2 km/h (1 Bft) 93,62 %
04.09.2020 10:02 18,3 C 16,7 C 16,7 C 99 % 1021,4 hPa 0,0 l/m 0 min 0 min 32 W/m 0,0 km/h (0 Bft) 93,62 %
04.09.2020 10:04 18,3 C 16,7 C 16,7 C 99 % 1021,4 hPa 0,0 l/m 0 min 0 min 35 W/m 0,0 km/h (0 Bft) 93,62 %
04.09.2020 10:06 18,2 C 16,7 C 16,7 C 99 % 1021,4 hPa 0,0 l/m 0 min 0 min 45 W/m 3,2 km/h (1 Bft) 93,48 %
04.09.2020 10:08 18,2 C 16,7 C 16,7 C 98 % 1021,4 hPa 0,0 l/m 0 min 0 min 43 W/m 0,0 km/h (0 Bft) 93,62 %
04.09.2020 10:10 18,2 C 16,7 C 16,7 C 98 % 1021,5 hPa 0,0 l/m 0 min 0 min 46 W/m 9,7 km/h (2 Bft) 91,49 %
04.09.2020 10:12 18,2 C 16,7 C 16,7 C 99 % 1021,5 hPa 0,0 l/m 0 min 2 min 32 W/m 0,0 km/h (0 Bft) 89,36 %
04.09.2020 10:14 18,1 C 16,7 C 16,7 C 99 % 1021,5 hPa 0,0 l/m 0 min 2 min 31 W/m 0,0 km/h (0 Bft) 93,62 %
04.09.2020 10:16 18,1 C 16,7 C 16,7 C 99 % 1021,5 hPa 0,0 l/m 0 min 2 min 37 W/m 3,2 km/h (1 Bft) 93,62 %
04.09.2020 10:18 18,0 C 16,7 C 16,7 C 99 % 1021,5 hPa 0,2 l/m 0 min 2 min 41 W/m 9,7 km/h (2 Bft) 95,65 %
04.09.2020 10:20 18,0 C 16,7 C 16,7 C 99 % 1021,5 hPa 0,0 l/m 0 min 2 min 47 W/m 3,2 km/h (1 Bft) 95,74 %
04.09.2020 10:22 17,9 C 16,7 C 16,7 C 99 % 1021,5 hPa 0,0 l/m 0 min 0 min 52 W/m 3,2 km/h (1 Bft) 95,74 %
04.09.2020 10:24 17,9 C 16,7 C 16,7 C 99 % 1021,5 hPa 0,0 l/m 0 min 0 min 57 W/m 6,4 km/h (2 Bft) 95,74 %
04.09.2020 10:26 17,9 C 16,7 C 16,7 C 99 % 1021,6 hPa 0,0 l/m 0 min 0 min 62 W/m 6,4 km/h (2 Bft) 97,87 %
04.09.2020 10:28 17,9 C 16,7 C 16,7 C 99 % 1021,5 hPa 0,0 l/m 0 min 0 min 54 W/m 3,2 km/h (1 Bft) 95,74 %
04.09.2020 10:30 17,9 C 16,7 C 16,7 C 99 % 1021,5 hPa 0,0 l/m 0 min 0 min 64 W/m 9,7 km/h (2 Bft) 97,83 %
04.09.2020 10:32 17,9 C 16,7 C 16,7 C 99 % 1021,5 hPa 0,0 l/m 0 min 0 min 123 W/m 0,0 km/h (0 Bft) 97,87 %
04.09.2020 10:34 17,9 C 17,2 C 16,7 C 99 % 1021,5 hPa 0,0 l/m 0 min 0 min 120 W/m 0,0 km/h (0 Bft) 100,00 %
04.09.2020 10:36 17,9 C 17,2 C 16,7 C 99 % 1021,5 hPa 0,0 l/m 0 min 0 min 97 W/m 3,2 km/h (1 Bft) 97,87 %
04.09.2020 10:38 18,0 C 16,7 C 16,7 C 99 % 1021,5 hPa 0,0 l/m 0 min 0 min 96 W/m 12,9 km/h (3 Bft) 100,00 %
04.09.2020 10:40 17,9 C 16,7 C 16,7 C 99 % 1021,5 hPa 0,0 l/m 0 min 0 min 91 W/m 3,2 km/h (1 Bft) 100,00 %
04.09.2020 10:42 18,0 C 16,7 C 16,7 C 99 % 1021,5 hPa 0,0 l/m 0 min 0 min 80 W/m 0,0 km/h (0 Bft) 100,00 %
04.09.2020 10:44 18,0 C 17,2 C 16,7 C 99 % 1021,5 hPa 0,0 l/m 0 min 0 min 64 W/m 6,4 km/h (2 Bft) 97,87 %
04.09.2020 10:46 18,0 C 17,2 C 16,7 C 99 % 1021,5 hPa 0,0 l/m 0 min 0 min 54 W/m 0,0 km/h (0 Bft) 100,00 %
04.09.2020 10:48 18,1 C 16,7 C 16,7 C 99 % 1021,6 hPa 0,0 l/m 0 min 0 min 64 W/m 6,4 km/h (2 Bft) 100,00 %
04.09.2020 10:50 18,0 C 17,2 C 16,7 C 99 % 1021,6 hPa 0,0 l/m 0 min 0 min 68 W/m 0,0 km/h (0 Bft) 100,00 %
04.09.2020 10:52 18,1 C 17,2 C 16,7 C 99 % 1021,6 hPa 0,0 l/m 0 min 0 min 56 W/m 0,0 km/h (0 Bft) 97,83 %
04.09.2020 10:54 18,1 C 17,2 C 16,7 C 99 % 1021,7 hPa 0,0 l/m 0 min 0 min 52 W/m 0,0 km/h (0 Bft) 97,87 %
04.09.2020 10:56 18,1 C 17,2 C 16,7 C 99 % 1021,7 hPa 0,0 l/m 0 min 0 min 64 W/m 3,2 km/h (1 Bft) 100,00 %
04.09.2020 10:58 18,1 C 17,2 C 16,7 C 99 % 1021,7 hPa 0,0 l/m 0 min 0 min 59 W/m 0,0 km/h (0 Bft) 100,00 %
04.09.2020 11:00 18,1 C 17,2 C 16,7 C 99 % 1021,7 hPa 0,0 l/m 0 min 2 min 67 W/m 3,2 km/h (1 Bft) 100,00 %
04.09.2020 11:02 18,1 C 17,2 C 16,7 C 99 % 1021,7 hPa 0,0 l/m 0 min 0 min 81 W/m 3,2 km/h (1 Bft) 100,00 %
04.09.2020 11:04 18,1 C 17,2 C 16,7 C 99 % 1021,7 hPa 0,0 l/m 0 min 0 min 95 W/m 3,2 km/h (1 Bft) 100,00 %
04.09.2020 11:06 18,2 C 17,2 C 16,7 C 99 % 1021,6 hPa 0,0 l/m 0 min 0 min 110 W/m 6,4 km/h (2 Bft) 100,00 %
04.09.2020 11:08 18,2 C 17,2 C 17,2 C 99 % 1021,7 hPa 0,0 l/m 0 min 2 min 94 W/m 0,0 km/h (0 Bft) 100,00 %
04.09.2020 11:10 18,2 C 17,2 C 16,7 C 99 % 1021,7 hPa 0,0 l/m 0 min 2 min 80 W/m 6,4 km/h (2 Bft) 100,00 %
04.09.2020 11:12 18,2 C 17,2 C 17,2 C 99 % 1021,7 hPa 0,0 l/m 0 min 2 min 109 W/m 0,0 km/h (0 Bft) 100,00 %
04.09.2020 11:14 18,2 C 17,8 C 17,2 C 99 % 1021,6 hPa 0,0 l/m 0 min 0 min 132 W/m 3,2 km/h (1 Bft) 97,87 %
04.09.2020 11:16 18,3 C 17,8 C 17,2 C 99 % 1021,7 hPa 0,2 l/m 0 min 2 min 120 W/m 0,0 km/h (0 Bft) 100,00 %
04.09.2020 11:18 18,4 C 17,8 C 17,2 C 99 % 1021,7 hPa 0,0 l/m 0 min 0 min 147 W/m 0,0 km/h (0 Bft) 100,00 %
04.09.2020 11:20 18,4 C 17,8 C 17,2 C 99 % 1021,7 hPa 0,0 l/m 0 min 0 min 128 W/m 9,7 km/h (2 Bft) 100,00 %
04.09.2020 11:22 18,6 C 17,8 C 17,2 C 99 % 1021,7 hPa 0,0 l/m 0 min 0 min 113 W/m 3,2 km/h (1 Bft) 100,00 %
04.09.2020 11:24 18,6 C 17,8 C 17,2 C 99 % 1021,7 hPa 0,0 l/m 0 min 2 min 148 W/m 3,2 km/h (1 Bft) 100,00 %
04.09.2020 11:26 18,6 C 17,8 C 17,2 C 99 % 1021,7 hPa 0,0 l/m 0 min 0 min 122 W/m 3,2 km/h (1 Bft) 100,00 %
04.09.2020 11:28 18,6 C 17,8 C 17,2 C 99 % 1021,7 hPa 0,0 l/m 0 min 0 min 125 W/m 6,4 km/h (2 Bft) 100,00 %
04.09.2020 11:30 18,7 C 17,8 C 17,2 C 99 % 1021,7 hPa 0,0 l/m 0 min 0 min 118 W/m 0,0 km/h (0 Bft) 100,00 %
04.09.2020 11:32 18,7 C 17,8 C 17,2 C 100 % 1021,7 hPa 0,0 l/m 0 min 0 min 99 W/m 0,0 km/h (0 Bft) 100,00 %
04.09.2020 11:34 18,7 C 17,8 C 17,2 C 100 % 1021,7 hPa 0,0 l/m 0 min 0 min 88 W/m 6,4 km/h (2 Bft) 100,00 %
04.09.2020 11:36 18,7 C 17,8 C 17,2 C 100 % 1021,7 hPa 0,0 l/m 0 min 0 min 74 W/m 3,2 km/h (1 Bft) 100,00 %
04.09.2020 11:38 18,7 C 17,2 C 17,2 C 100 % 1021,7 hPa 0,0 l/m 0 min 0 min 61 W/m 0,0 km/h (0 Bft) 100,00 %
04.09.2020 11:40 18,7 C 17,8 C 17,2 C 100 % 1021,7 hPa 0,0 l/m 0 min 0 min 61 W/m 0,0 km/h (0 Bft) 100,00 %
04.09.2020 11:42 18,7 C 17,2 C 17,2 C 100 % 1021,7 hPa 0,0 l/m 0 min 0 min 58 W/m 0,0 km/h (0 Bft) 97,87 %
04.09.2020 11:44 18,7 C 17,2 C 17,2 C 100 % 1021,7 hPa 0,0 l/m 0 min 0 min 67 W/m 6,4 km/h (2 Bft) 100,00 %
04.09.2020 11:46 18,7 C 17,2 C 17,2 C 100 % 1021,7 hPa 0,0 l/m 0 min 0 min 86 W/m 3,2 km/h (1 Bft) 100,00 %
04.09.2020 11:48 18,6 C 17,2 C 17,2 C 100 % 1021,8 hPa 0,0 l/m 0 min 0 min 98 W/m 12,9 km/h (3 Bft) 100,00 %
04.09.2020 11:50 18,6 C 17,2 C 17,2 C 99 % 1021,7 hPa 0,0 l/m 0 min 0 min 96 W/m 6,4 km/h (2 Bft) 100,00 %
04.09.2020 11:52 18,6 C 17,2 C 17,2 C 99 % 1021,8 hPa 0,0 l/m 0 min 2 min 134 W/m 6,4 km/h (2 Bft) 100,00 %
04.09.2020 11:54 18,6 C 17,8 C 17,2 C 99 % 1021,7 hPa 0,0 l/m 0 min 0 min 197 W/m 12,9 km/h (3 Bft) 100,00 %
04.09.2020 11:56 18,6 C 17,8 C 17,2 C 99 % 1021,8 hPa 0,0 l/m 0 min 0 min 205 W/m 0,0 km/h (0 Bft) 100,00 %
04.09.2020 11:58 18,6 C 17,8 C 17,8 C 99 % 1021,8 hPa 0,0 l/m 0 min 0 min 166 W/m 3,2 km/h (1 Bft) 100,00 %
04.09.2020 12:00 18,6 C 17,8 C 17,8 C 99 % 1021,8 hPa 0,0 l/m 0 min 0 min 235 W/m 9,7 km/h (2 Bft) 100,00 %
04.09.2020 12:02 18,6 C 18,3 C 17,8 C 99 % 1021,8 hPa 0,0 l/m 0 min 0 min 297 W/m 6,4 km/h (2 Bft) 95,74 %
04.09.2020 12:04 18,7 C 18,3 C 17,8 C 100 % 1021,7 hPa 0,0 l/m 0 min 0 min 290 W/m 3,2 km/h (1 Bft) 100,00 %
04.09.2020 12:08 18,8 C 18,3 C 17,8 C 100 % 1021,8 hPa 0,0 l/m 0 min 0 min 216 W/m 12,9 km/h (3 Bft) 100,00 %
04.09.2020 12:10 18,8 C 17,8 C 17,8 C 100 % 1021,8 hPa 0,0 l/m 0 min 0 min 147 W/m 19,3 km/h (3 Bft) 100,00 %
04.09.2020 12:12 18,7 C 17,8 C 17,2 C 100 % 1021,8 hPa 0,0 l/m 0 min 0 min 113 W/m 3,2 km/h (1 Bft) 100,00 %
04.09.2020 12:14 18,7 C 17,2 C 17,2 C 100 % 1021,9 hPa 0,0 l/m 0 min 0 min 101 W/m 9,7 km/h (2 Bft) 100,00 %
04.09.2020 12:16 18,6 C 17,2 C 17,2 C 100 % 1021,8 hPa 0,0 l/m 0 min 0 min 118 W/m 12,9 km/h (3 Bft) 98,15 %
04.09.2020 12:18 18,6 C 17,2 C 17,2 C 99 % 1021,8 hPa 0,0 l/m 0 min 0 min 129 W/m 12,9 km/h (3 Bft) 97,83 %
04.09.2020 12:20 18,6 C 17,2 C 17,2 C 99 % 1021,8 hPa 0,0 l/m 0 min 0 min 134 W/m 12,9 km/h (3 Bft) 100,00 %
04.09.2020 12:22 18,4 C 17,2 C 17,2 C 99 % 1021,9 hPa 0,0 l/m 0 min 0 min 145 W/m 19,3 km/h (3 Bft) 100,00 %
04.09.2020 12:24 18,4 C 17,8 C 17,2 C 99 % 1021,8 hPa 0,0 l/m 0 min 0 min 145 W/m 6,4 km/h (2 Bft) 100,00 %
04.09.2020 12:26 18,4 C 17,8 C 17,2 C 99 % 1021,7 hPa 0,0 l/m 0 min 0 min 148 W/m 12,9 km/h (3 Bft) 95,74 %
04.09.2020 12:28 18,4 C 17,8 C 17,2 C 99 % 1021,7 hPa 0,0 l/m 0 min 0 min 167 W/m 6,4 km/h (2 Bft) 95,65 %
04.09.2020 12:30 18,4 C 18,3 C 17,2 C 99 % 1021,6 hPa 0,0 l/m 0 min 0 min 231 W/m 12,9 km/h (3 Bft) 95,74 %
04.09.2020 12:32 18,4 C 18,3 C 17,8 C 99 % 1021,6 hPa 0,0 l/m 0 min 0 min 294 W/m 0,0 km/h (0 Bft) 95,74 %
04.09.2020 12:34 18,5 C 18,3 C 17,8 C 99 % 1021,6 hPa 0,0 l/m 0 min 0 min 275 W/m 6,4 km/h (2 Bft) 95,74 %
04.09.2020 12:36 18,5 C 18,3 C 17,8 C 99 % 1021,6 hPa 0,0 l/m 0 min 0 min 225 W/m 9,7 km/h (2 Bft) 95,74 %
04.09.2020 12:38 18,6 C 18,9 C 17,8 C 99 % 1021,7 hPa 0,0 l/m 0 min 0 min 259 W/m 9,7 km/h (2 Bft) 96,15 %
04.09.2020 12:40 18,6 C 18,9 C 17,8 C 99 % 1021,6 hPa 0,0 l/m 0 min 0 min 341 W/m 9,7 km/h (2 Bft) 95,74 %
04.09.2020 12:42 18,7 C 18,9 C 17,8 C 100 % 1021,6 hPa 0,0 l/m 2 min 0 min 357 W/m 12,9 km/h (3 Bft) 93,62 %
04.09.2020 12:44 18,7 C 18,9 C 17,8 C 100 % 1021,7 hPa 0,0 l/m 0 min 0 min 236 W/m 12,9 km/h (3 Bft) 95,74 %
04.09.2020 12:46 18,7 C 18,3 C 17,8 C 100 % 1021,6 hPa 0,0 l/m 0 min 0 min 182 W/m 6,4 km/h (2 Bft) 95,65 %
04.09.2020 12:48 18,7 C 18,3 C 17,8 C 99 % 1021,6 hPa 0,0 l/m 0 min 0 min 185 W/m 6,4 km/h (2 Bft) 93,62 %
04.09.2020 12:50 18,7 C 18,3 C 17,8 C 99 % 1021,6 hPa 0,0 l/m 0 min 0 min 194 W/m 16,1 km/h (3 Bft) 95,74 %
04.09.2020 12:52 18,7 C 18,3 C 17,8 C 99 % 1021,6 hPa 0,0 l/m 0 min 0 min 231 W/m 9,7 km/h (2 Bft) 93,62 %
04.09.2020 12:54 18,7 C 18,3 C 17,8 C 99 % 1021,6 hPa 0,0 l/m 0 min 0 min 275 W/m 16,1 km/h (3 Bft) 93,62 %
04.09.2020 12:56 18,7 C 18,9 C 17,8 C 99 % 1021,6 hPa 0,0 l/m 2 min 0 min 349 W/m 16,1 km/h (3 Bft) 93,48 %
04.09.2020 12:58 18,7 C 19,4 C 18,3 C 99 % 1021,6 hPa 0,0 l/m 2 min 0 min 410 W/m 9,7 km/h (2 Bft) 91,30 %
04.09.2020 13:00 18,8 C 20,0 C 18,3 C 99 % 1021,5 hPa 0,0 l/m 2 min 0 min 480 W/m 9,7 km/h (2 Bft) 93,62 %
04.09.2020 13:02 18,8 C 19,4 C 18,3 C 99 % 1021,5 hPa 0,0 l/m 2 min 0 min 379 W/m 16,1 km/h (3 Bft) 94,29 %
04.09.2020 13:04 18,9 C 20,6 C 18,3 C 99 % 1021,5 hPa 0,0 l/m 2 min 0 min 444 W/m 6,4 km/h (2 Bft) 89,36 %
04.09.2020 13:06 19,0 C 20,0 C 18,3 C 99 % 1021,5 hPa 0,0 l/m 2 min 0 min 372 W/m 12,9 km/h (3 Bft) 91,53 %
04.09.2020 13:08 19,1 C 19,4 C 18,3 C 99 % 1021,5 hPa 0,0 l/m 0 min 0 min 280 W/m 9,7 km/h (2 Bft) 93,48 %
04.09.2020 13:10 19,1 C 18,9 C 18,3 C 99 % 1021,5 hPa 0,0 l/m 0 min 0 min 248 W/m 12,9 km/h (3 Bft) 94,44 %
04.09.2020 13:12 19,1 C 18,9 C 17,8 C 99 % 1021,5 hPa 0,0 l/m 0 min 0 min 244 W/m 16,1 km/h (3 Bft) 93,48 %
04.09.2020 13:14 19,0 C 18,9 C 17,8 C 99 % 1021,5 hPa 0,0 l/m 0 min 0 min 243 W/m 16,1 km/h (3 Bft) 95,74 %
04.09.2020 13:16 19,0 C 18,9 C 17,8 C 99 % 1021,4 hPa 0,0 l/m 0 min 0 min 248 W/m 6,4 km/h (2 Bft) 91,49 %
04.09.2020 13:18 19,0 C 18,9 C 17,8 C 99 % 1021,4 hPa 0,0 l/m 0 min 0 min 213 W/m 6,4 km/h (2 Bft) 95,74 %
04.09.2020 13:20 19,0 C 18,3 C 17,8 C 98 % 1021,5 hPa 0,0 l/m 0 min 0 min 182 W/m 12,9 km/h (3 Bft) 93,62 %
04.09.2020 13:22 19,0 C 18,3 C 17,8 C 98 % 1021,6 hPa 0,0 l/m 0 min 0 min 167 W/m 12,9 km/h (3 Bft) 93,62 %
04.09.2020 13:24 19,0 C 18,3 C 17,8 C 98 % 1021,6 hPa 0,0 l/m 0 min 0 min 135 W/m 6,4 km/h (2 Bft) 95,65 %
04.09.2020 13:26 19,0 C 18,3 C 17,2 C 98 % 1021,5 hPa 0,0 l/m 0 min 0 min 149 W/m 9,7 km/h (2 Bft) 89,36 %
04.09.2020 13:28 19,0 C 18,3 C 17,2 C 98 % 1021,6 hPa 0,0 l/m 0 min 0 min 178 W/m 12,9 km/h (3 Bft) 95,74 %
04.09.2020 13:30 19,0 C 18,3 C 17,8 C 98 % 1021,6 hPa 0,0 l/m 0 min 0 min 189 W/m 6,4 km/h (2 Bft) 95,74 %
04.09.2020 13:32 19,0 C 18,3 C 17,8 C 98 % 1021,6 hPa 0,0 l/m 0 min 0 min 196 W/m 16,1 km/h (3 Bft) 95,74 %
04.09.2020 13:34 19,1 C 18,9 C 17,8 C 97 % 1021,6 hPa 0,0 l/m 0 min 0 min 246 W/m 9,7 km/h (2 Bft) 97,87 %
04.09.2020 13:36 19,1 C 18,9 C 17,8 C 97 % 1021,6 hPa 0,0 l/m 0 min 0 min 324 W/m 16,1 km/h (3 Bft) 97,83 %
04.09.2020 13:38 19,1 C 19,4 C 18,3 C 97 % 1021,6 hPa 0,0 l/m 0 min 0 min 329 W/m 12,9 km/h (3 Bft) 97,87 %
04.09.2020 13:40 19,1 C 18,9 C 18,3 C 97 % 1021,6 hPa 0,0 l/m 0 min 0 min 262 W/m 16,1 km/h (3 Bft) 100,00 %
04.09.2020 13:42 19,2 C 18,9 C 17,8 C 97 % 1021,6 hPa 0,0 l/m 0 min 0 min 207 W/m 9,7 km/h (2 Bft) 100,00 %
04.09.2020 13:44 19,2 C 18,9 C 17,8 C 97 % 1021,6 hPa 0,0 l/m 0 min 0 min 203 W/m 12,9 km/h (3 Bft) 100,00 %
04.09.2020 13:46 19,2 C 18,3 C 17,8 C 97 % 1021,6 hPa 0,0 l/m 0 min 0 min 203 W/m 22,5 km/h (4 Bft) 97,87 %
04.09.2020 13:48 19,1 C 18,3 C 18,3 C 96 % 1021,6 hPa 0,0 l/m 0 min 0 min 177 W/m 16,1 km/h (3 Bft) 100,00 %
04.09.2020 13:50 19,1 C 18,3 C 18,3 C 96 % 1021,5 hPa 0,0 l/m 0 min 0 min 164 W/m 12,9 km/h (3 Bft) 100,00 %
04.09.2020 13:52 19,1 C 18,3 C 17,8 C 96 % 1021,5 hPa 0,0 l/m 0 min 0 min 138 W/m 16,1 km/h (3 Bft) 100,00 %
04.09.2020 13:54 19,1 C 18,3 C 17,8 C 95 % 1021,6 hPa 0,0 l/m 0 min 0 min 131 W/m 9,7 km/h (2 Bft) 100,00 %
04.09.2020 13:56 19,1 C 18,3 C 17,8 C 95 % 1021,6 hPa 0,0 l/m 0 min 0 min 159 W/m 12,9 km/h (3 Bft) 97,87 %
04.09.2020 13:58 19,1 C 18,3 C 18,3 C 95 % 1021,5 hPa 0,0 l/m 0 min 0 min 183 W/m 16,1 km/h (3 Bft) 100,00 %
04.09.2020 14:00 19,1 C 18,9 C 18,3 C 95 % 1021,6 hPa 0,0 l/m 0 min 0 min 262 W/m 6,4 km/h (2 Bft) 100,00 %
04.09.2020 14:02 19,2 C 18,9 C 18,3 C 95 % 1021,6 hPa 0,0 l/m 0 min 0 min 263 W/m 9,7 km/h (2 Bft) 100,00 %
04.09.2020 14:04 19,2 C 19,4 C 18,3 C 95 % 1021,5 hPa 0,0 l/m 0 min 0 min 273 W/m 22,5 km/h (4 Bft) 100,00 %
04.09.2020 14:06 19,3 C 20,0 C 18,9 C 95 % 1021,5 hPa 0,0 l/m 0 min 0 min 338 W/m 6,4 km/h (2 Bft) 100,00 %
04.09.2020 14:08 19,3 C 20,0 C 18,9 C 95 % 1021,5 hPa 0,0 l/m 0 min 0 min 284 W/m 16,1 km/h (3 Bft) 100,00 %
04.09.2020 14:10 19,4 C 19,4 C 18,9 C 94 % 1021,5 hPa 0,0 l/m 0 min 0 min 241 W/m 12,9 km/h (3 Bft) 100,00 %
04.09.2020 14:12 19,4 C 19,4 C 18,9 C 94 % 1021,5 hPa 0,0 l/m 0 min 0 min 235 W/m 16,1 km/h (3 Bft) 100,00 %
04.09.2020 14:14 19,5 C 19,4 C 18,9 C 94 % 1021,5 hPa 0,0 l/m 0 min 0 min 249 W/m 9,7 km/h (2 Bft) 100,00 %
04.09.2020 14:16 19,5 C 20,0 C 18,9 C 94 % 1021,5 hPa 0,0 l/m 0 min 0 min 284 W/m 16,1 km/h (3 Bft) 100,00 %
04.09.2020 14:18 19,6 C 20,6 C 18,9 C 94 % 1021,5 hPa 0,0 l/m 0 min 0 min 341 W/m 16,1 km/h (3 Bft) 97,87 %
04.09.2020 14:20 19,6 C 21,7 C 19,4 C 94 % 1021,5 hPa 0,0 l/m 2 min 0 min 483 W/m 12,9 km/h (3 Bft) 100,00 %
04.09.2020 14:22 19,7 C 22,2 C 19,4 C 94 % 1021,4 hPa 0,0 l/m 2 min 0 min 458 W/m 16,1 km/h (3 Bft) 95,65 %
04.09.2020 14:24 19,8 C 21,7 C 19,4 C 93 % 1021,5 hPa 0,0 l/m 2 min 0 min 418 W/m 19,3 km/h (3 Bft) 100,00 %
04.09.2020 14:26 19,8 C 21,7 C 19,4 C 93 % 1021,5 hPa 0,0 l/m 0 min 0 min 339 W/m 16,1 km/h (3 Bft) 100,00 %
04.09.2020 14:28 19,8 C 21,7 C 19,4 C 92 % 1021,4 hPa 0,0 l/m 2 min 0 min 355 W/m 16,1 km/h (3 Bft) 100,00 %
04.09.2020 14:30 19,9 C 22,2 C 19,4 C 92 % 1021,4 hPa 0,0 l/m 2 min 0 min 429 W/m 12,9 km/h (3 Bft) 97,87 %
04.09.2020 14:32 19,9 C 23,3 C 19,4 C 92 % 1021,4 hPa 0,0 l/m 2 min 0 min 508 W/m 12,9 km/h (3 Bft) 97,87 %
04.09.2020 14:34 20,1 C 23,9 C 19,4 C 92 % 1021,5 hPa 0,0 l/m 2 min 0 min 515 W/m 12,9 km/h (3 Bft) 100,00 %
04.09.2020 14:36 20,1 C 23,3 C 19,4 C 92 % 1021,5 hPa 0,0 l/m 2 min 0 min 412 W/m 19,3 km/h (3 Bft) 100,00 %
04.09.2020 14:38 20,2 C 22,2 C 19,4 C 92 % 1021,5 hPa 0,0 l/m 0 min 0 min 315 W/m 19,3 km/h (3 Bft) 100,00 %
04.09.2020 14:40 20,3 C 22,2 C 19,4 C 91 % 1021,5 hPa 0,0 l/m 2 min 0 min 413 W/m 22,5 km/h (4 Bft) 100,00 %
04.09.2020 14:42 20,3 C 22,2 C 19,4 C 90 % 1021,5 hPa 0,0 l/m 2 min 0 min 527 W/m 19,3 km/h (3 Bft) 100,00 %
04.09.2020 14:44 20,4 C 22,2 C 19,4 C 90 % 1021,4 hPa 0,0 l/m 2 min 0 min 366 W/m 22,5 km/h (4 Bft) 100,00 %
04.09.2020 14:46 20,4 C 21,7 C 19,4 C 90 % 1021,4 hPa 0,0 l/m 2 min 0 min 339 W/m 16,1 km/h (3 Bft) 100,00 %
04.09.2020 14:48 20,4 C 21,7 C 19,4 C 89 % 1021,4 hPa 0,0 l/m 2 min 0 min 351 W/m 19,3 km/h (3 Bft) 100,00 %
04.09.2020 14:50 20,5 C 22,2 C 19,4 C 89 % 1021,5 hPa 0,0 l/m 2 min 0 min 426 W/m 19,3 km/h (3 Bft) 100,00 %
04.09.2020 14:52 20,5 C 22,8 C 19,4 C 89 % 1021,4 hPa 0,0 l/m 2 min 0 min 542 W/m 16,1 km/h (3 Bft) 100,00 %
04.09.2020 14:54 20,6 C 22,8 C 20,0 C 89 % 1021,4 hPa 0,0 l/m 2 min 0 min 557 W/m 32,2 km/h (5 Bft) 97,87 %
04.09.2020 14:56 20,6 C 22,2 C 19,4 C 89 % 1021,3 hPa 0,0 l/m 0 min 0 min 308 W/m 12,9 km/h (3 Bft) 100,00 %
04.09.2020 14:58 20,6 C 21,7 C 19,4 C 88 % 1021,4 hPa 0,0 l/m 0 min 0 min 250 W/m 25,7 km/h (4 Bft) 97,87 %
04.09.2020 15:00 20,6 C 21,7 C 19,4 C 88 % 1021,3 hPa 0,0 l/m 0 min 0 min 256 W/m 22,5 km/h (4 Bft) 97,87 %
04.09.2020 15:02 20,7 C 22,2 C 19,4 C 88 % 1021,3 hPa 0,0 l/m 2 min 0 min 370 W/m 12,9 km/h (3 Bft) 97,87 %
04.09.2020 15:04 20,7 C 22,2 C 19,4 C 88 % 1021,3 hPa 0,0 l/m 0 min 0 min 262 W/m 9,7 km/h (2 Bft) 95,74 %
04.09.2020 15:06 20,7 C 22,2 C 19,4 C 88 % 1021,3 hPa 0,0 l/m 0 min 0 min 230 W/m 6,4 km/h (2 Bft) 97,87 %
04.09.2020 15:08 20,7 C 21,7 C 19,4 C 88 % 1021,3 hPa 0,0 l/m 0 min 0 min 224 W/m 12,9 km/h (3 Bft) 97,87 %
04.09.2020 15:10 20,7 C 21,7 C 19,4 C 88 % 1021,3 hPa 0,0 l/m 0 min 0 min 255 W/m 12,9 km/h (3 Bft) 97,83 %
04.09.2020 15:12 20,8 C 21,1 C 19,4 C 88 % 1021,3 hPa 0,0 l/m 0 min 0 min 280 W/m 22,5 km/h (4 Bft) 97,87 %
04.09.2020 15:14 20,7 C 21,1 C 19,4 C 88 % 1021,3 hPa 0,0 l/m 0 min 0 min 272 W/m 16,1 km/h (3 Bft) 97,87 %
04.09.2020 15:16 20,7 C 21,1 C 19,4 C 88 % 1021,3 hPa 0,0 l/m 0 min 0 min 276 W/m 9,7 km/h (2 Bft) 97,87 %
04.09.2020 15:18 20,8 C 21,1 C 19,4 C 88 % 1021,3 hPa 0,0 l/m 0 min 0 min 228 W/m 12,9 km/h (3 Bft) 97,87 %
04.09.2020 15:20 20,8 C 21,1 C 19,4 C 88 % 1021,3 hPa 0,0 l/m 0 min 0 min 230 W/m 12,9 km/h (3 Bft) 97,83 %
04.09.2020 15:22 20,7 C 21,1 C 19,4 C 88 % 1021,3 hPa 0,0 l/m 0 min 0 min 218 W/m 12,9 km/h (3 Bft) 95,74 %
04.09.2020 15:24 20,8 C 21,1 C 19,4 C 88 % 1021,3 hPa 0,0 l/m 0 min 0 min 217 W/m 25,7 km/h (4 Bft) 97,87 %
04.09.2020 15:26 20,7 C 21,1 C 19,4 C 88 % 1021,3 hPa 0,0 l/m 0 min 0 min 222 W/m 16,1 km/h (3 Bft) 97,87 %
04.09.2020 15:28 20,7 C 21,1 C 19,4 C 87 % 1021,3 hPa 0,0 l/m 0 min 0 min 228 W/m 22,5 km/h (4 Bft) 97,87 %
04.09.2020 15:30 20,7 C 21,1 C 19,4 C 87 % 1021,3 hPa 0,0 l/m 0 min 0 min 259 W/m 19,3 km/h (3 Bft) 97,87 %
04.09.2020 15:32 20,7 C 21,1 C 19,4 C 88 % 1021,2 hPa 0,0 l/m 0 min 0 min 292 W/m 19,3 km/h (3 Bft) 97,83 %
04.09.2020 15:34 20,7 C 21,7 C 19,4 C 88 % 1021,2 hPa 0,0 l/m 0 min 0 min 304 W/m 12,9 km/h (3 Bft) 97,87 %
04.09.2020 15:36 20,7 C 21,7 C 19,4 C 88 % 1021,1 hPa 0,0 l/m 2 min 0 min 321 W/m 12,9 km/h (3 Bft) 91,49 %
04.09.2020 15:38 20,7 C 21,7 C 19,4 C 88 % 1021,1 hPa 0,0 l/m 2 min 0 min 320 W/m 25,7 km/h (4 Bft) 97,87 %
04.09.2020 15:40 20,8 C 21,1 C 19,4 C 88 % 1021,1 hPa 0,0 l/m 0 min 0 min 283 W/m 22,5 km/h (4 Bft) 93,62 %
04.09.2020 15:42 20,7 C 21,1 C 19,4 C 87 % 1021,1 hPa 0,0 l/m 0 min 0 min 265 W/m 12,9 km/h (3 Bft) 97,87 %
04.09.2020 15:44 20,7 C 21,1 C 19,4 C 87 % 1021,0 hPa 0,0 l/m 0 min 0 min 267 W/m 12,9 km/h (3 Bft) 100,00 %
04.09.2020 15:46 20,7 C 21,1 C 19,4 C 87 % 1021,1 hPa 0,0 l/m 0 min 0 min 250 W/m 19,3 km/h (3 Bft) 97,87 %
04.09.2020 15:48 20,7 C 21,1 C 19,4 C 87 % 1021,2 hPa 0,0 l/m 0 min 0 min 229 W/m 19,3 km/h (3 Bft) 97,87 %
04.09.2020 15:50 20,8 C 21,1 C 19,4 C 87 % 1021,1 hPa 0,0 l/m 0 min 0 min 227 W/m 12,9 km/h (3 Bft) 95,74 %
04.09.2020 15:52 20,8 C 21,1 C 19,4 C 87 % 1021,1 hPa 0,0 l/m 0 min 0 min 237 W/m 9,7 km/h (2 Bft) 95,74 %
04.09.2020 15:54 20,8 C 21,1 C 19,4 C 87 % 1021,1 hPa 0,0 l/m 0 min 0 min 226 W/m 19,3 km/h (3 Bft) 95,74 %
04.09.2020 15:56 20,8 C 21,1 C 19,4 C 87 % 1021,1 hPa 0,0 l/m 0 min 0 min 207 W/m 12,9 km/h (3 Bft) 95,65 %
04.09.2020 15:58 20,8 C 20,6 C 19,4 C 87 % 1021,1 hPa 0,0 l/m 0 min 0 min 206 W/m 22,5 km/h (4 Bft) 95,74 %
04.09.2020 16:00 20,8 C 21,1 C 19,4 C 87 % 1021,0 hPa 0,0 l/m 0 min 0 min 216 W/m 12,9 km/h (3 Bft) 95,74 %
04.09.2020 16:02 20,8 C 21,1 C 19,4 C 87 % 1021,0 hPa 0,0 l/m 0 min 0 min 221 W/m 6,4 km/h (2 Bft) 94,34 %
04.09.2020 16:04 20,8 C 21,1 C 19,4 C 87 % 1021,0 hPa 0,0 l/m 0 min 0 min 207 W/m 12,9 km/h (3 Bft) 95,74 %
04.09.2020 16:06 20,8 C 21,1 C 19,4 C 87 % 1021,0 hPa 0,0 l/m 0 min 0 min 168 W/m 9,7 km/h (2 Bft) 95,74 %
04.09.2020 16:08 20,8 C 21,1 C 19,4 C 87 % 1021,0 hPa 0,0 l/m 0 min 0 min 141 W/m 9,7 km/h (2 Bft) 95,74 %
04.09.2020 16:10 20,8 C 20,6 C 19,4 C 87 % 1021,0 hPa 0,0 l/m 0 min 0 min 124 W/m 3,2 km/h (1 Bft) 95,65 %
04.09.2020 16:12 20,8 C 20,6 C 19,4 C 87 % 1020,9 hPa 0,0 l/m 0 min 0 min 124 W/m 6,4 km/h (2 Bft) 95,74 %
04.09.2020 16:14 20,8 C 20,6 C 19,4 C 87 % 1020,9 hPa 0,0 l/m 0 min 0 min 122 W/m 9,7 km/h (2 Bft) 95,74 %
04.09.2020 16:16 20,8 C 20,6 C 18,9 C 87 % 1020,9 hPa 0,0 l/m 0 min 0 min 126 W/m 3,2 km/h (1 Bft) 95,74 %
04.09.2020 16:18 20,8 C 20,6 C 18,9 C 87 % 1020,9 hPa 0,0 l/m 0 min 0 min 117 W/m 12,9 km/h (3 Bft) 93,62 %
04.09.2020 16:20 20,8 C 20,6 C 18,9 C 87 % 1021,0 hPa 0,0 l/m 0 min 0 min 129 W/m 12,9 km/h (3 Bft) 95,74 %
04.09.2020 16:22 20,7 C 20,0 C 18,9 C 87 % 1020,9 hPa 0,0 l/m 0 min 0 min 131 W/m 16,1 km/h (3 Bft) 95,65 %
04.09.2020 16:24 20,7 C 20,6 C 18,9 C 87 % 1020,8 hPa 0,0 l/m 0 min 0 min 138 W/m 12,9 km/h (3 Bft) 95,74 %
04.09.2020 16:26 20,7 C 20,6 C 18,9 C 87 % 1020,9 hPa 0,0 l/m 0 min 0 min 151 W/m 12,9 km/h (3 Bft) 95,74 %
04.09.2020 16:28 20,7 C 20,6 C 19,4 C 87 % 1020,8 hPa 0,0 l/m 0 min 0 min 164 W/m 6,4 km/h (2 Bft) 95,74 %
04.09.2020 16:30 20,7 C 20,6 C 19,4 C 87 % 1020,9 hPa 0,0 l/m 0 min 0 min 161 W/m 16,1 km/h (3 Bft) 95,74 %
04.09.2020 16:32 20,7 C 20,6 C 19,4 C 87 % 1020,8 hPa 0,0 l/m 0 min 0 min 164 W/m 22,5 km/h (4 Bft) 95,74 %
04.09.2020 16:34 20,7 C 20,6 C 19,4 C 87 % 1020,9 hPa 0,0 l/m 0 min 0 min 161 W/m 19,3 km/h (3 Bft) 93,48 %
04.09.2020 16:36 20,7 C 20,6 C 19,4 C 87 % 1020,9 hPa 0,0 l/m 0 min 0 min 154 W/m 9,7 km/h (2 Bft) 93,62 %
04.09.2020 16:38 20,7 C 20,6 C 19,4 C 87 % 1020,9 hPa 0,0 l/m 0 min 0 min 141 W/m 12,9 km/h (3 Bft) 97,87 %
04.09.2020 16:40 20,7 C 20,6 C 19,4 C 87 % 1020,9 hPa 0,0 l/m 0 min 0 min 152 W/m 19,3 km/h (3 Bft) 97,87 %
04.09.2020 16:42 20,7 C 20,6 C 19,4 C 87 % 1020,9 hPa 0,0 l/m 0 min 0 min 149 W/m 12,9 km/h (3 Bft) 95,74 %
04.09.2020 16:44 20,7 C 20,6 C 19,4 C 86 % 1020,8 hPa 0,0 l/m 0 min 0 min 147 W/m 22,5 km/h (4 Bft) 97,83 %
04.09.2020 16:46 20,7 C 20,6 C 19,4 C 86 % 1020,8 hPa 0,0 l/m 0 min 0 min 163 W/m 16,1 km/h (3 Bft) 97,87 %
04.09.2020 16:48 20,6 C 20,6 C 19,4 C 86 % 1020,9 hPa 0,0 l/m 0 min 0 min 169 W/m 19,3 km/h (3 Bft) 97,87 %
04.09.2020 16:50 20,6 C 20,6 C 19,4 C 86 % 1020,8 hPa 0,0 l/m 0 min 0 min 147 W/m 12,9 km/h (3 Bft) 93,62 %
04.09.2020 16:52 20,6 C 20,6 C 19,4 C 86 % 1020,8 hPa 0,0 l/m 0 min 0 min 132 W/m 6,4 km/h (2 Bft) 97,87 %
04.09.2020 16:54 20,6 C 20,6 C 19,4 C 86 % 1020,8 hPa 0,0 l/m 0 min 0 min 130 W/m 16,1 km/h (3 Bft) 97,87 %
04.09.2020 16:56 20,6 C 20,6 C 19,4 C 86 % 1020,7 hPa 0,0 l/m 0 min 0 min 129 W/m 12,9 km/h (3 Bft) 97,83 %
04.09.2020 16:58 20,6 C 20,6 C 19,4 C 86 % 1020,8 hPa 0,0 l/m 0 min 0 min 146 W/m 9,7 km/h (2 Bft) 97,87 %
04.09.2020 17:00 20,6 C 20,6 C 19,4 C 86 % 1020,7 hPa 0,0 l/m 0 min 0 min 162 W/m 6,4 km/h (2 Bft) 100,00 %
04.09.2020 17:02 20,6 C 20,6 C 19,4 C 87 % 1020,7 hPa 0,0 l/m 0 min 0 min 167 W/m 6,4 km/h (2 Bft) 97,92 %
04.09.2020 17:04 20,6 C 21,1 C 19,4 C 87 % 1020,7 hPa 0,0 l/m 0 min 0 min 188 W/m 12,9 km/h (3 Bft) 100,00 %
04.09.2020 17:06 20,6 C 21,1 C 19,4 C 86 % 1020,7 hPa 0,0 l/m 0 min 0 min 216 W/m 9,7 km/h (2 Bft) 100,00 %
04.09.2020 17:08 20,7 C 21,7 C 19,4 C 87 % 1020,7 hPa 0,0 l/m 2 min 0 min 253 W/m 12,9 km/h (3 Bft) 100,00 %
04.09.2020 17:10 20,7 C 21,7 C 20,0 C 87 % 1020,7 hPa 0,0 l/m 2 min 0 min 267 W/m 9,7 km/h (2 Bft) 100,00 %
04.09.2020 17:12 20,7 C 21,7 C 20,0 C 87 % 1020,7 hPa 0,0 l/m 2 min 0 min 270 W/m 22,5 km/h (4 Bft) 97,87 %
04.09.2020 17:14 20,8 C 21,7 C 20,0 C 86 % 1020,8 hPa 0,0 l/m 2 min 0 min 301 W/m 16,1 km/h (3 Bft) 100,00 %
04.09.2020 17:16 20,8 C 21,7 C 20,0 C 86 % 1020,6 hPa 0,0 l/m 2 min 0 min 217 W/m 9,7 km/h (2 Bft) 97,87 %
04.09.2020 17:18 20,8 C 21,1 C 20,0 C 86 % 1020,6 hPa 0,0 l/m 0 min 0 min 136 W/m 12,9 km/h (3 Bft) 100,00 %
04.09.2020 17:20 20,8 C 20,6 C 19,4 C 86 % 1020,7 hPa 0,0 l/m 0 min 0 min 130 W/m 16,1 km/h (3 Bft) 100,00 %
04.09.2020 17:22 20,8 C 20,6 C 19,4 C 86 % 1020,6 hPa 0,0 l/m 0 min 0 min 201 W/m 12,9 km/h (3 Bft) 100,00 %
04.09.2020 17:24 20,8 C 21,1 C 19,4 C 86 % 1020,6 hPa 0,0 l/m 0 min 0 min 204 W/m 9,7 km/h (2 Bft) 100,00 %
04.09.2020 17:26 20,8 C 20,6 C 19,4 C 86 % 1020,6 hPa 0,0 l/m 0 min 0 min 129 W/m 6,4 km/h (2 Bft) 100,00 %
04.09.2020 17:28 20,8 C 20,6 C 19,4 C 86 % 1020,6 hPa 0,0 l/m 0 min 0 min 87 W/m 12,9 km/h (3 Bft) 97,87 %
04.09.2020 17:30 20,8 C 20,6 C 19,4 C 86 % 1020,6 hPa 0,0 l/m 0 min 0 min 100 W/m 6,4 km/h (2 Bft) 97,83 %
04.09.2020 17:32 20,8 C 20,6 C 19,4 C 86 % 1020,6 hPa 0,0 l/m 0 min 0 min 92 W/m 12,9 km/h (3 Bft) 97,92 %
04.09.2020 17:34 20,8 C 20,0 C 19,4 C 86 % 1020,6 hPa 0,0 l/m 0 min 0 min 82 W/m 22,5 km/h (4 Bft) 95,74 %
04.09.2020 17:36 20,8 C 20,0 C 18,9 C 86 % 1020,6 hPa 0,0 l/m 0 min 0 min 82 W/m 12,9 km/h (3 Bft) 97,87 %
04.09.2020 17:38 20,8 C 20,0 C 18,9 C 86 % 1020,5 hPa 0,0 l/m 0 min 0 min 91 W/m 9,7 km/h (2 Bft) 95,74 %
04.09.2020 17:40 20,7 C 20,0 C 18,9 C 86 % 1020,5 hPa 0,0 l/m 0 min 0 min 89 W/m 16,1 km/h (3 Bft) 97,87 %
04.09.2020 17:42 20,7 C 20,0 C 18,9 C 86 % 1020,6 hPa 0,0 l/m 0 min 0 min 86 W/m 12,9 km/h (3 Bft) 97,87 %
04.09.2020 17:44 20,7 C 20,0 C 18,9 C 86 % 1020,5 hPa 0,0 l/m 0 min 0 min 81 W/m 9,7 km/h (2 Bft) 97,83 %
04.09.2020 17:46 20,7 C 20,0 C 18,9 C 86 % 1020,5 hPa 0,0 l/m 0 min 0 min 88 W/m 6,4 km/h (2 Bft) 95,74 %
04.09.2020 17:48 20,7 C 20,0 C 18,9 C 86 % 1020,5 hPa 0,0 l/m 0 min 0 min 117 W/m 9,7 km/h (2 Bft) 97,87 %
04.09.2020 17:50 20,7 C 20,6 C 19,4 C 86 % 1020,5 hPa 0,0 l/m 2 min 0 min 182 W/m 9,7 km/h (2 Bft) 97,87 %
04.09.2020 17:52 20,7 C 21,1 C 19,4 C 87 % 1020,5 hPa 0,0 l/m 0 min 0 min 166 W/m 9,7 km/h (2 Bft) 95,74 %
04.09.2020 17:54 20,7 C 21,1 C 19,4 C 87 % 1020,5 hPa 0,0 l/m 0 min 0 min 148 W/m 9,7 km/h (2 Bft) 97,83 %
04.09.2020 17:56 20,7 C 21,1 C 19,4 C 87 % 1020,5 hPa 0,0 l/m 2 min 0 min 184 W/m 9,7 km/h (2 Bft) 95,74 %
04.09.2020 17:58 20,7 C 21,1 C 19,4 C 87 % 1020,5 hPa 0,0 l/m 2 min 0 min 190 W/m 16,1 km/h (3 Bft) 97,87 %
04.09.2020 18:00 20,8 C 21,7 C 19,4 C 87 % 1020,4 hPa 0,0 l/m 2 min 0 min 229 W/m 6,4 km/h (2 Bft) 97,87 %
04.09.2020 18:02 20,8 C 22,2 C 20,0 C 87 % 1020,4 hPa 0,0 l/m 2 min 0 min 315 W/m 12,9 km/h (3 Bft) 97,87 %
04.09.2020 18:04 20,8 C 22,2 C 20,0 C 87 % 1020,4 hPa 0,0 l/m 2 min 0 min 296 W/m 29,0 km/h (5 Bft) 97,87 %
04.09.2020 18:08 20,9 C 21,7 C 20,0 C 86 % 1020,4 hPa 0,0 l/m 4 min 0 min 192 W/m 12,9 km/h (3 Bft) 97,85 %
04.09.2020 18:10 20,9 C 21,1 C 20,0 C 86 % 1020,4 hPa 0,0 l/m 2 min 0 min 173 W/m 9,7 km/h (2 Bft) 100,00 %
04.09.2020 18:12 20,9 C 21,1 C 19,4 C 85 % 1020,3 hPa 0,0 l/m 0 min 0 min 146 W/m 19,3 km/h (3 Bft) 97,87 %
04.09.2020 18:14 20,9 C 21,1 C 19,4 C 85 % 1020,3 hPa 0,0 l/m 0 min 0 min 139 W/m 6,4 km/h (2 Bft) 100,00 %
04.09.2020 18:16 21,0 C 20,6 C 19,4 C 85 % 1020,3 hPa 0,0 l/m 0 min 0 min 112 W/m 9,7 km/h (2 Bft) 97,87 %
04.09.2020 18:18 21,0 C 20,6 C 19,4 C 85 % 1020,3 hPa 0,0 l/m 0 min 0 min 114 W/m 9,7 km/h (2 Bft) 100,00 %
04.09.2020 18:20 21,0 C 20,6 C 19,4 C 85 % 1020,3 hPa 0,0 l/m 0 min 0 min 127 W/m 6,4 km/h (2 Bft) 100,00 %
04.09.2020 18:22 21,1 C 21,1 C 19,4 C 86 % 1020,3 hPa 0,0 l/m 0 min 0 min 128 W/m 9,7 km/h (2 Bft) 95,74 %
04.09.2020 18:24 21,1 C 21,1 C 19,4 C 85 % 1020,2 hPa 0,0 l/m 0 min 0 min 129 W/m 9,7 km/h (2 Bft) 93,62 %
04.09.2020 18:26 21,1 C 21,1 C 19,4 C 85 % 1020,1 hPa 0,0 l/m 2 min 0 min 144 W/m 16,1 km/h (3 Bft) 100,00 %
04.09.2020 18:28 21,1 C 21,1 C 19,4 C 85 % 1020,2 hPa 0,0 l/m 2 min 0 min 170 W/m 6,4 km/h (2 Bft) 95,74 %
04.09.2020 18:30 21,1 C 21,1 C 19,4 C 85 % 1020,1 hPa 0,0 l/m 2 min 0 min 173 W/m 12,9 km/h (3 Bft) 100,00 %
04.09.2020 18:32 21,1 C 21,7 C 19,4 C 85 % 1020,1 hPa 0,0 l/m 2 min 0 min 198 W/m 16,1 km/h (3 Bft) 100,00 %
04.09.2020 18:34 21,1 C 21,7 C 19,4 C 85 % 1020,1 hPa 0,0 l/m 2 min 0 min 208 W/m 9,7 km/h (2 Bft) 97,87 %
04.09.2020 18:36 21,1 C 22,2 C 20,0 C 85 % 1020,1 hPa 0,0 l/m 2 min 0 min 201 W/m 12,9 km/h (3 Bft) 100,00 %
04.09.2020 18:38 21,2 C 22,2 C 20,0 C 85 % 1020,0 hPa 0,0 l/m 2 min 0 min 195 W/m 6,4 km/h (2 Bft) 100,00 %
04.09.2020 18:40 21,2 C 22,2 C 20,0 C 86 % 1020,0 hPa 0,0 l/m 2 min 0 min 190 W/m 6,4 km/h (2 Bft) 100,00 %
04.09.2020 18:42 21,3 C 22,2 C 20,0 C 86 % 1020,0 hPa 0,0 l/m 2 min 0 min 165 W/m 12,9 km/h (3 Bft) 100,00 %
04.09.2020 18:44 21,3 C 21,7 C 20,0 C 86 % 1020,1 hPa 0,0 l/m 2 min 0 min 141 W/m 6,4 km/h (2 Bft) 97,87 %
04.09.2020 18:46 21,3 C 21,7 C 20,0 C 86 % 1020,1 hPa 0,0 l/m 2 min 0 min 125 W/m 6,4 km/h (2 Bft) 97,87 %
04.09.2020 18:48 21,3 C 21,1 C 19,4 C 85 % 1020,1 hPa 0,0 l/m 0 min 0 min 103 W/m 12,9 km/h (3 Bft) 97,87 %
04.09.2020 18:50 21,3 C 21,1 C 19,4 C 85 % 1020,0 hPa 0,0 l/m 0 min 0 min 90 W/m 6,4 km/h (2 Bft) 97,87 %
04.09.2020 18:52 21,3 C 20,6 C 19,4 C 85 % 1020,0 hPa 0,0 l/m 0 min 0 min 88 W/m 6,4 km/h (2 Bft) 97,87 %
04.09.2020 18:54 21,3 C 20,6 C 19,4 C 84 % 1020,0 hPa 0,0 l/m 0 min 0 min 80 W/m 6,4 km/h (2 Bft) 97,83 %
04.09.2020 18:56 21,3 C 20,6 C 19,4 C 84 % 1019,9 hPa 0,0 l/m 0 min 0 min 68 W/m 12,9 km/h (3 Bft) 97,87 %
04.09.2020 18:58 21,3 C 20,6 C 19,4 C 84 % 1019,9 hPa 0,0 l/m 0 min 0 min 73 W/m 9,7 km/h (2 Bft) 97,87 %
04.09.2020 19:00 21,3 C 20,6 C 18,9 C 84 % 1019,9 hPa 0,0 l/m 0 min 0 min 77 W/m 6,4 km/h (2 Bft) 97,87 %
04.09.2020 19:02 21,3 C 20,0 C 18,9 C 84 % 1019,9 hPa 0,0 l/m 0 min 0 min 66 W/m 6,4 km/h (2 Bft) 97,87 %
04.09.2020 19:04 21,3 C 20,0 C 18,9 C 84 % 1019,8 hPa 0,0 l/m 0 min 0 min 60 W/m 6,4 km/h (2 Bft) 93,48 %
04.09.2020 19:06 21,3 C 20,0 C 18,9 C 85 % 1019,8 hPa 0,0 l/m 0 min 0 min 51 W/m 3,2 km/h (1 Bft) 97,87 %
04.09.2020 19:08 21,2 C 20,0 C 18,9 C 85 % 1019,8 hPa 0,0 l/m 0 min 0 min 42 W/m 3,2 km/h (1 Bft) 97,87 %
04.09.2020 19:10 21,2 C 20,0 C 18,9 C 85 % 1019,9 hPa 0,0 l/m 0 min 0 min 37 W/m 3,2 km/h (1 Bft) 95,74 %
04.09.2020 19:12 21,2 C 19,4 C 18,9 C 85 % 1019,8 hPa 0,0 l/m 0 min 0 min 33 W/m 3,2 km/h (1 Bft) 95,74 %
04.09.2020 19:14 21,1 C 19,4 C 18,9 C 85 % 1019,8 hPa 0,0 l/m 0 min 0 min 33 W/m 9,7 km/h (2 Bft) 93,62 %
04.09.2020 19:16 21,1 C 19,4 C 18,3 C 85 % 1019,8 hPa 0,0 l/m 0 min 0 min 33 W/m 3,2 km/h (1 Bft) 97,83 %
04.09.2020 19:18 21,1 C 19,4 C 18,3 C 85 % 1019,8 hPa 0,0 l/m 0 min 0 min 34 W/m 3,2 km/h (1 Bft) 97,87 %
04.09.2020 19:20 21,1 C 19,4 C 18,3 C 85 % 1019,8 hPa 0,0 l/m 0 min 0 min 33 W/m 3,2 km/h (1 Bft) 95,74 %
04.09.2020 19:22 21,0 C 19,4 C 18,3 C 84 % 1019,7 hPa 0,0 l/m 0 min 0 min 30 W/m 6,4 km/h (2 Bft) 93,62 %
04.09.2020 19:24 20,9 C 19,4 C 18,3 C 85 % 1019,7 hPa 0,0 l/m 0 min 0 min 25 W/m 6,4 km/h (2 Bft) 95,74 %
04.09.2020 19:26 20,9 C 18,9 C 18,3 C 84 % 1019,7 hPa 0,0 l/m 0 min 0 min 22 W/m 3,2 km/h (1 Bft) 97,87 %
04.09.2020 19:28 20,9 C 18,9 C 18,3 C 84 % 1019,7 hPa 0,0 l/m 0 min 0 min 20 W/m 3,2 km/h (1 Bft) 95,65 %
04.09.2020 19:30 20,8 C 18,9 C 18,3 C 84 % 1019,8 hPa 0,0 l/m 0 min 0 min 18 W/m 3,2 km/h (1 Bft) 95,74 %
04.09.2020 19:32 20,7 C 18,9 C 18,3 C 85 % 1019,8 hPa 0,0 l/m 0 min 0 min 17 W/m 3,2 km/h (1 Bft) 95,74 %
04.09.2020 19:34 20,7 C 18,9 C 18,3 C 85 % 1019,7 hPa 0,0 l/m 0 min 0 min 15 W/m 3,2 km/h (1 Bft) 91,49 %
04.09.2020 19:36 20,7 C 18,9 C 18,3 C 85 % 1019,7 hPa 0,0 l/m 0 min 0 min 13 W/m 3,2 km/h (1 Bft) 95,74 %
04.09.2020 19:38 20,6 C 18,9 C 18,3 C 85 % 1019,7 hPa 0,0 l/m 0 min 0 min 11 W/m 3,2 km/h (1 Bft) 97,83 %
04.09.2020 19:40 20,6 C 18,9 C 17,8 C 85 % 1019,7 hPa 0,0 l/m 0 min 0 min 10 W/m 3,2 km/h (1 Bft) 97,87 %
04.09.2020 19:42 20,5 C 18,9 C 17,8 C 85 % 1019,7 hPa 0,0 l/m 0 min 0 min 9 W/m 3,2 km/h (1 Bft) 97,87 %
04.09.2020 19:44 20,4 C 18,9 C 17,8 C 85 % 1019,6 hPa 0,0 l/m 0 min 0 min 9 W/m 6,4 km/h (2 Bft) 100,00 %
04.09.2020 19:46 20,4 C 18,9 C 17,8 C 85 % 1019,6 hPa 0,0 l/m 0 min 0 min 9 W/m 3,2 km/h (1 Bft) 95,74 %
04.09.2020 19:48 20,4 C 18,9 C 17,8 C 85 % 1019,7 hPa 0,0 l/m 0 min 0 min 9 W/m 3,2 km/h (1 Bft) 95,74 %
04.09.2020 19:50 20,3 C 18,9 C 17,8 C 85 % 1019,8 hPa 0,0 l/m 0 min 0 min 9 W/m 3,2 km/h (1 Bft) 97,87 %
04.09.2020 19:52 20,3 C 18,9 C 17,8 C 85 % 1020,0 hPa 0,0 l/m 0 min 0 min 6 W/m 6,4 km/h (2 Bft) 97,83 %
04.09.2020 19:54 20,2 C 18,9 C 17,8 C 85 % 1019,9 hPa 0,0 l/m 0 min 0 min 5 W/m 3,2 km/h (1 Bft) 93,62 %
04.09.2020 19:56 20,2 C 18,9 C 17,8 C 85 % 1019,7 hPa 0,0 l/m 0 min 0 min 5 W/m 3,2 km/h (1 Bft) 97,87 %
04.09.2020 19:58 20,2 C 18,9 C 17,8 C 85 % 1019,8 hPa 0,0 l/m 0 min 0 min 5 W/m 3,2 km/h (1 Bft) 95,74 %
04.09.2020 20:00 20,1 C 18,9 C 17,8 C 85 % 1019,7 hPa 0,0 l/m 0 min 0 min 5 W/m 6,4 km/h (2 Bft) 95,74 %
04.09.2020 20:02 20,1 C 18,9 C 17,8 C 85 % 1019,8 hPa 0,0 l/m 0 min 0 min 3 W/m 3,2 km/h (1 Bft) 95,65 %
04.09.2020 20:04 20,1 C 18,3 C 17,8 C 85 % 1019,7 hPa 0,0 l/m 0 min 0 min 0 W/m 0,0 km/h (0 Bft) 93,62 %
04.09.2020 20:06 20,1 C 18,3 C 17,8 C 86 % 1019,7 hPa 0,0 l/m 0 min 0 min 0 W/m 0,0 km/h (0 Bft) 91,49 %
04.09.2020 20:08 20,0 C 18,3 C 17,8 C 86 % 1019,8 hPa 0,0 l/m 0 min 0 min 0 W/m 0,0 km/h (0 Bft) 95,74 %
04.09.2020 20:10 20,0 C 18,3 C 17,8 C 86 % 1019,8 hPa 0,0 l/m 0 min 0 min 0 W/m 0,0 km/h (0 Bft) 95,74 %
04.09.2020 20:12 19,9 C 18,3 C 17,8 C 86 % 1019,9 hPa 0,0 l/m 0 min 0 min 0 W/m 0,0 km/h (0 Bft) 95,74 %
04.09.2020 20:14 19,9 C 18,3 C 17,8 C 86 % 1019,8 hPa 0,0 l/m 0 min 0 min 0 W/m 0,0 km/h (0 Bft) 93,62 %
04.09.2020 20:16 19,9 C 18,3 C 17,2 C 86 % 1019,9 hPa 0,0 l/m 0 min 0 min 0 W/m 0,0 km/h (0 Bft) 97,83 %
04.09.2020 20:18 19,9 C 18,3 C 17,2 C 86 % 1019,9 hPa 0,0 l/m 0 min 0 min 0 W/m 0,0 km/h (0 Bft) 95,74 %
04.09.2020 20:20 19,8 C 18,3 C 17,2 C 86 % 1019,9 hPa 0,0 l/m 0 min 0 min 0 W/m 0,0 km/h (0 Bft) 97,87 %
04.09.2020 20:22 19,8 C 18,3 C 17,2 C 87 % 1019,9 hPa 0,0 l/m 0 min 0 min 0 W/m 3,2 km/h (1 Bft) 97,87 %
04.09.2020 20:24 19,8 C 18,3 C 17,2 C 87 % 1019,9 hPa 0,0 l/m 0 min 0 min 0 W/m 3,2 km/h (1 Bft) 97,87 %
04.09.2020 20:26 19,8 C 18,3 C 17,2 C 87 % 1019,8 hPa 0,0 l/m 0 min 0 min 0 W/m 0,0 km/h (0 Bft) 97,83 %
04.09.2020 20:28 19,7 C 18,3 C 17,2 C 87 % 1019,8 hPa 0,0 l/m 0 min 0 min 0 W/m 3,2 km/h (1 Bft) 98,00 %
04.09.2020 20:30 19,7 C 18,3 C 17,2 C 87 % 1019,9 hPa 0,0 l/m 0 min 0 min 0 W/m 3,2 km/h (1 Bft) 95,74 %
04.09.2020 20:32 19,7 C 18,3 C 17,2 C 87 % 1019,9 hPa 0,0 l/m 0 min 0 min 0 W/m 0,0 km/h (0 Bft) 97,83 %
04.09.2020 20:34 19,7 C 18,3 C 17,2 C 87 % 1019,9 hPa 0,0 l/m 0 min 0 min 0 W/m 0,0 km/h (0 Bft) 97,87 %
04.09.2020 20:36 19,6 C 18,3 C 17,2 C 87 % 1019,9 hPa 0,0 l/m 0 min 0 min 0 W/m 0,0 km/h (0 Bft) 97,87 %
04.09.2020 20:38 19,6 C 18,3 C 17,2 C 87 % 1019,9 hPa 0,0 l/m 0 min 0 min 0 W/m 3,2 km/h (1 Bft) 97,87 %
04.09.2020 20:40 19,6 C 17,8 C 17,2 C 87 % 1019,9 hPa 0,0 l/m 0 min 0 min 0 W/m 0,0 km/h (0 Bft) 97,87 %
04.09.2020 20:42 19,6 C 17,8 C 17,2 C 87 % 1019,9 hPa 0,0 l/m 0 min 0 min 0 W/m 0,0 km/h (0 Bft) 97,87 %
04.09.2020 20:44 19,6 C 17,8 C 17,2 C 87 % 1020,0 hPa 0,0 l/m 0 min 0 min 0 W/m 3,2 km/h (1 Bft) 97,83 %
04.09.2020 20:46 19,6 C 17,8 C 17,2 C 88 % 1020,0 hPa 0,0 l/m 0 min 0 min 0 W/m 0,0 km/h (0 Bft) 100,00 %
04.09.2020 20:48 19,5 C 17,8 C 17,2 C 88 % 1020,1 hPa 0,0 l/m 0 min 0 min 0 W/m 0,0 km/h (0 Bft) 100,00 %
04.09.2020 20:50 19,5 C 17,8 C 17,2 C 88 % 1020,0 hPa 0,0 l/m 0 min 0 min 0 W/m 0,0 km/h (0 Bft) 100,00 %
04.09.2020 20:52 19,4 C 17,8 C 17,2 C 88 % 1020,0 hPa 0,0 l/m 0 min 0 min 0 W/m 0,0 km/h (0 Bft) 100,00 %
04.09.2020 20:54 19,4 C 17,8 C 16,7 C 88 % 1020,0 hPa 0,0 l/m 0 min 0 min 0 W/m 0,0 km/h (0 Bft) 100,00 %
04.09.2020 20:56 19,4 C 17,8 C 16,7 C 88 % 1020,0 hPa 0,0 l/m 0 min 0 min 0 W/m 0,0 km/h (0 Bft) 100,00 %
04.09.2020 20:58 19,4 C 17,8 C 16,7 C 88 % 1020,1 hPa 0,0 l/m 0 min 0 min 0 W/m 0,0 km/h (0 Bft) 97,87 %
04.09.2020 21:00 19,3 C 17,8 C 16,7 C 88 % 1020,1 hPa 0,0 l/m 0 min 0 min 0 W/m 0,0 km/h (0 Bft) 100,00 %
04.09.2020 21:02 19,3 C 17,8 C 16,7 C 88 % 1020,1 hPa 0,0 l/m 0 min 0 min 0 W/m 0,0 km/h (0 Bft) 97,87 %
04.09.2020 21:04 19,3 C 17,8 C 16,7 C 88 % 1020,1 hPa 0,0 l/m 0 min 0 min 0 W/m 0,0 km/h (0 Bft) 100,00 %
04.09.2020 21:06 19,3 C 17,8 C 16,7 C 88 % 1020,1 hPa 0,0 l/m 0 min 0 min 0 W/m 0,0 km/h (0 Bft) 100,00 %
04.09.2020 21:08 19,3 C 17,8 C 16,7 C 88 % 1020,1 hPa 0,0 l/m 0 min 0 min 0 W/m 0,0 km/h (0 Bft) 100,00 %
04.09.2020 21:10 19,2 C 17,8 C 16,7 C 88 % 1020,1 hPa 0,0 l/m 0 min 0 min 0 W/m 3,2 km/h (1 Bft) 100,00 %
04.09.2020 21:12 19,2 C 17,8 C 16,7 C 89 % 1020,0 hPa 0,0 l/m 0 min 0 min 0 W/m 0,0 km/h (0 Bft) 100,00 %
04.09.2020 21:14 19,2 C 17,8 C 16,7 C 89 % 1020,0 hPa 0,0 l/m 0 min 0 min 0 W/m 3,2 km/h (1 Bft) 100,00 %
04.09.2020 21:16 19,2 C 17,2 C 16,7 C 89 % 1020,0 hPa 0,0 l/m 0 min 0 min 0 W/m 0,0 km/h (0 Bft) 93,62 %
04.09.2020 21:18 19,2 C 17,2 C 16,7 C 89 % 1020,0 hPa 0,0 l/m 0 min 0 min 0 W/m 0,0 km/h (0 Bft) 97,83 %
04.09.2020 21:20 19,1 C 17,2 C 16,7 C 89 % 1020,0 hPa 0,0 l/m 0 min 0 min 0 W/m 0,0 km/h (0 Bft) 100,00 %
04.09.2020 21:22 19,1 C 17,2 C 16,7 C 89 % 1020,0 hPa 0,0 l/m 0 min 0 min 0 W/m 0,0 km/h (0 Bft) 100,00 %
04.09.2020 21:24 19,1 C 17,2 C 16,7 C 89 % 1020,0 hPa 0,0 l/m 0 min 0 min 0 W/m 3,2 km/h (1 Bft) 100,00 %
04.09.2020 21:26 19,1 C 17,2 C 16,7 C 89 % 1020,0 hPa 0,0 l/m 0 min 0 min 0 W/m 3,2 km/h (1 Bft) 100,00 %
04.09.2020 21:28 19,1 C 17,2 C 16,7 C 89 % 1020,1 hPa 0,0 l/m 0 min 0 min 0 W/m 3,2 km/h (1 Bft) 97,87 %
04.09.2020 21:30 19,0 C 17,2 C 16,7 C 89 % 1020,0 hPa 0,0 l/m 0 min 0 min 0 W/m 3,2 km/h (1 Bft) 100,00 %
04.09.2020 21:32 18,9 C 17,2 C 16,7 C 89 % 1020,0 hPa 0,0 l/m 0 min 0 min 0 W/m 6,4 km/h (2 Bft) 97,87 %
04.09.2020 21:34 18,9 C 17,2 C 16,7 C 89 % 1020,0 hPa 0,0 l/m 0 min 0 min 0 W/m 3,2 km/h (1 Bft) 97,87 %
04.09.2020 21:36 18,8 C 17,2 C 16,7 C 89 % 1020,1 hPa 0,0 l/m 0 min 0 min 0 W/m 3,2 km/h (1 Bft) 100,00 %
04.09.2020 21:38 18,8 C 17,2 C 16,7 C 89 % 1020,1 hPa 0,0 l/m 0 min 0 min 0 W/m 6,4 km/h (2 Bft) 100,00 %
04.09.2020 21:40 18,7 C 17,2 C 16,7 C 89 % 1020,1 hPa 0,0 l/m 0 min 0 min 0 W/m 3,2 km/h (1 Bft) 95,74 %
04.09.2020 21:42 18,7 C 17,2 C 16,7 C 88 % 1020,1 hPa 0,0 l/m 0 min 0 min 0 W/m 3,2 km/h (1 Bft) 100,00 %
04.09.2020 21:44 18,6 C 17,2 C 16,7 C 88 % 1020,1 hPa 0,0 l/m 0 min 0 min 0 W/m 3,2 km/h (1 Bft) 100,00 %
04.09.2020 21:46 18,6 C 17,2 C 16,7 C 88 % 1020,1 hPa 0,0 l/m 0 min 0 min 0 W/m 0,0 km/h (0 Bft) 100,00 %
04.09.2020 21:48 18,6 C 17,2 C 16,7 C 88 % 1020,1 hPa 0,0 l/m 0 min 0 min 0 W/m 0,0 km/h (0 Bft) 100,00 %
04.09.2020 21:50 18,5 C 17,2 C 16,7 C 87 % 1020,1 hPa 0,0 l/m 0 min 0 min 0 W/m 0,0 km/h (0 Bft) 100,00 %
04.09.2020 21:52 18,4 C 17,2 C 16,7 C 87 % 1020,1 hPa 0,0 l/m 0 min 0 min 0 W/m 0,0 km/h (0 Bft) 97,87 %
04.09.2020 21:54 18,4 C 17,2 C 16,7 C 87 % 1020,1 hPa 0,0 l/m 0 min 0 min 0 W/m 0,0 km/h (0 Bft) 100,00 %
04.09.2020 21:56 18,4 C 17,2 C 16,7 C 87 % 1020,1 hPa 0,0 l/m 0 min 0 min 0 W/m 0,0 km/h (0 Bft) 100,00 %
04.09.2020 21:58 18,3 C 17,2 C 16,7 C 87 % 1020,1 hPa 0,0 l/m 0 min 0 min 0 W/m 0,0 km/h (0 Bft) 97,87 %
04.09.2020 22:00 18,3 C 17,2 C 16,7 C 87 % 1020,1 hPa 0,0 l/m 0 min 0 min 0 W/m 0,0 km/h (0 Bft) 100,00 %
04.09.2020 22:02 18,3 C 16,7 C 16,7 C 87 % 1020,1 hPa 0,0 l/m 0 min 0 min 0 W/m 0,0 km/h (0 Bft) 100,00 %
04.09.2020 22:04 18,3 C 16,7 C 16,7 C 87 % 1020,1 hPa 0,0 l/m 0 min 0 min 0 W/m 0,0 km/h (0 Bft) 100,00 %
04.09.2020 22:06 18,2 C 16,7 C 16,7 C 87 % 1020,1 hPa 0,0 l/m 0 min 0 min 0 W/m 0,0 km/h (0 Bft) 95,74 %
04.09.2020 22:08 18,2 C 16,7 C 16,7 C 87 % 1020,2 hPa 0,0 l/m 0 min 0 min 0 W/m 3,2 km/h (1 Bft) 95,74 %
04.09.2020 22:10 18,2 C 16,7 C 16,7 C 87 % 1020,1 hPa 0,0 l/m 0 min 0 min 0 W/m 3,2 km/h (1 Bft) 95,74 %
04.09.2020 22:12 18,2 C 16,7 C 16,7 C 87 % 1020,1 hPa 0,0 l/m 0 min 0 min 0 W/m 3,2 km/h (1 Bft) 95,74 %
04.09.2020 22:14 18,1 C 16,7 C 16,7 C 87 % 1020,1 hPa 0,0 l/m 0 min 0 min 0 W/m 3,2 km/h (1 Bft) 97,87 %
04.09.2020 22:16 18,1 C 16,7 C 16,1 C 86 % 1020,2 hPa 0,0 l/m 0 min 0 min 0 W/m 6,4 km/h (2 Bft) 97,83 %
04.09.2020 22:18 18,1 C 16,7 C 16,1 C 86 % 1020,2 hPa 0,0 l/m 0 min 0 min 0 W/m 6,4 km/h (2 Bft) 95,74 %
04.09.2020 22:20 18,0 C 16,7 C 16,1 C 86 % 1020,3 hPa 0,0 l/m 0 min 0 min 0 W/m 0,0 km/h (0 Bft) 91,49 %
04.09.2020 22:22 18,0 C 16,7 C 16,1 C 86 % 1020,3 hPa 0,0 l/m 0 min 0 min 0 W/m 0,0 km/h (0 Bft) 95,74 %
04.09.2020 22:24 17,9 C 16,7 C 16,1 C 86 % 1020,2 hPa 0,0 l/m 0 min 0 min 0 W/m 6,4 km/h (2 Bft) 95,74 %
04.09.2020 22:26 17,9 C 16,7 C 16,1 C 85 % 1020,3 hPa 0,0 l/m 0 min 0 min 0 W/m 3,2 km/h (1 Bft) 95,74 %
04.09.2020 22:28 17,8 C 16,7 C 16,1 C 85 % 1020,3 hPa 0,0 l/m 0 min 0 min 0 W/m 3,2 km/h (1 Bft) 95,65 %
04.09.2020 22:30 17,8 C 16,7 C 16,1 C 85 % 1020,3 hPa 0,0 l/m 0 min 0 min 0 W/m 3,2 km/h (1 Bft) 95,74 %
04.09.2020 22:32 17,8 C 16,7 C 16,1 C 85 % 1020,3 hPa 0,0 l/m 0 min 0 min 0 W/m 3,2 km/h (1 Bft) 95,74 %
04.09.2020 22:34 17,7 C 16,7 C 16,1 C 85 % 1020,3 hPa 0,0 l/m 0 min 0 min 0 W/m 6,4 km/h (2 Bft) 95,74 %
04.09.2020 22:36 17,7 C 16,7 C 16,1 C 85 % 1020,2 hPa 0,0 l/m 0 min 0 min 0 W/m 3,2 km/h (1 Bft) 95,74 %
04.09.2020 22:38 17,7 C 16,1 C 16,1 C 85 % 1020,3 hPa 0,0 l/m 0 min 0 min 0 W/m 0,0 km/h (0 Bft) 95,74 %
04.09.2020 22:40 17,7 C 16,1 C 16,1 C 85 % 1020,2 hPa 0,0 l/m 0 min 0 min 0 W/m 3,2 km/h (1 Bft) 95,65 %
04.09.2020 22:42 17,6 C 16,1 C 16,1 C 84 % 1020,2 hPa 0,0 l/m 0 min 0 min 0 W/m 6,4 km/h (2 Bft) 93,62 %
04.09.2020 22:44 17,6 C 16,1 C 16,1 C 84 % 1020,2 hPa 0,0 l/m 0 min 0 min 0 W/m 6,4 km/h (2 Bft) 93,62 %
04.09.2020 22:46 17,6 C 16,1 C 16,1 C 84 % 1020,2 hPa 0,0 l/m 0 min 0 min 0 W/m 9,7 km/h (2 Bft) 91,49 %
04.09.2020 22:48 17,6 C 16,1 C 16,1 C 84 % 1020,1 hPa 0,0 l/m 0 min 0 min 0 W/m 9,7 km/h (2 Bft) 93,62 %
04.09.2020 22:50 17,5 C 16,1 C 16,1 C 84 % 1020,0 hPa 0,0 l/m 0 min 0 min 0 W/m 3,2 km/h (1 Bft) 91,49 %
04.09.2020 22:52 17,5 C 16,1 C 16,1 C 84 % 1020,1 hPa 0,0 l/m 0 min 0 min 0 W/m 6,4 km/h (2 Bft) 93,48 %
04.09.2020 22:54 17,5 C 16,1 C 16,1 C 85 % 1020,1 hPa 0,0 l/m 0 min 0 min 0 W/m 3,2 km/h (1 Bft) 93,62 %
04.09.2020 22:56 17,4 C 16,1 C 16,1 C 84 % 1020,1 hPa 0,0 l/m 0 min 0 min 0 W/m 9,7 km/h (2 Bft) 91,49 %
04.09.2020 22:58 17,4 C 16,1 C 16,1 C 85 % 1020,0 hPa 0,0 l/m 0 min 0 min 0 W/m 3,2 km/h (1 Bft) 93,62 %
04.09.2020 23:00 17,4 C 16,1 C 15,6 C 85 % 1019,9 hPa 0,0 l/m 0 min 0 min 0 W/m 3,2 km/h (1 Bft) 93,62 %
04.09.2020 23:02 17,4 C 16,1 C 15,6 C 85 % 1019,9 hPa 0,0 l/m 0 min 0 min 0 W/m 0,0 km/h (0 Bft) 93,48 %
04.09.2020 23:04 17,3 C 16,1 C 15,6 C 84 % 1019,9 hPa 0,0 l/m 0 min 0 min 0 W/m 6,4 km/h (2 Bft) 93,62 %
04.09.2020 23:06 17,3 C 16,1 C 15,6 C 84 % 1019,9 hPa 0,0 l/m 0 min 0 min 0 W/m 0,0 km/h (0 Bft) 91,49 %
04.09.2020 23:08 17,3 C 16,1 C 15,6 C 84 % 1019,9 hPa 0,0 l/m 0 min 0 min 0 W/m 0,0 km/h (0 Bft) 95,74 %
04.09.2020 23:10 17,3 C 16,1 C 15,6 C 84 % 1019,9 hPa 0,0 l/m 0 min 0 min 0 W/m 0,0 km/h (0 Bft) 95,74 %
04.09.2020 23:12 17,3 C 16,1 C 15,6 C 85 % 1019,9 hPa 0,0 l/m 0 min 0 min 0 W/m 0,0 km/h (0 Bft) 95,74 %
04.09.2020 23:14 17,3 C 16,1 C 15,6 C 85 % 1019,9 hPa 0,0 l/m 0 min 0 min 0 W/m 0,0 km/h (0 Bft) 95,65 %
04.09.2020 23:16 17,2 C 16,1 C 15,6 C 85 % 1019,9 hPa 0,0 l/m 0 min 0 min 0 W/m 0,0 km/h (0 Bft) 95,74 %
04.09.2020 23:18 17,2 C 16,1 C 15,6 C 85 % 1019,9 hPa 0,0 l/m 0 min 0 min 0 W/m 0,0 km/h (0 Bft) 95,74 %
04.09.2020 23:20 17,2 C 16,1 C 15,6 C 85 % 1019,8 hPa 0,0 l/m 0 min 0 min 0 W/m 0,0 km/h (0 Bft) 97,87 %
04.09.2020 23:22 17,2 C 15,6 C 15,6 C 85 % 1019,8 hPa 0,0 l/m 0 min 0 min 0 W/m 0,0 km/h (0 Bft) 97,87 %
04.09.2020 23:24 17,2 C 15,6 C 15,6 C 85 % 1019,7 hPa 0,0 l/m 0 min 0 min 0 W/m 0,0 km/h (0 Bft) 95,74 %
04.09.2020 23:26 17,2 C 15,6 C 15,6 C 85 % 1019,7 hPa 0,0 l/m 0 min 0 min 0 W/m 0,0 km/h (0 Bft) 97,83 %
04.09.2020 23:28 17,2 C 15,6 C 15,6 C 85 % 1019,7 hPa 0,0 l/m 0 min 0 min 0 W/m 0,0 km/h (0 Bft) 97,87 %
04.09.2020 23:30 17,1 C 15,6 C 15,6 C 85 % 1019,7 hPa 0,0 l/m 0 min 0 min 0 W/m 0,0 km/h (0 Bft) 95,74 %
04.09.2020 23:32 17,1 C 15,6 C 15,6 C 85 % 1019,7 hPa 0,0 l/m 0 min 0 min 0 W/m 0,0 km/h (0 Bft) 100,00 %
04.09.2020 23:34 17,1 C 15,6 C 15,0 C 85 % 1019,7 hPa 0,0 l/m 0 min 0 min 0 W/m 0,0 km/h (0 Bft) 97,87 %
04.09.2020 23:36 17,1 C 15,6 C 15,0 C 85 % 1019,6 hPa 0,0 l/m 0 min 0 min 0 W/m 0,0 km/h (0 Bft) 100,00 %
04.09.2020 23:38 17,1 C 15,6 C 15,0 C 85 % 1019,7 hPa 0,0 l/m 0 min 0 min 0 W/m 0,0 km/h (0 Bft) 100,00 %
04.09.2020 23:40 17,1 C 15,6 C 15,0 C 85 % 1019,7 hPa 0,0 l/m 0 min 0 min 0 W/m 0,0 km/h (0 Bft) 100,00 %
04.09.2020 23:42 17,0 C 15,6 C 15,0 C 85 % 1019,7 hPa 0,0 l/m 0 min 0 min 0 W/m 0,0 km/h (0 Bft) 100,00 %
04.09.2020 23:44 17,0 C 15,6 C 15,0 C 85 % 1019,7 hPa 0,0 l/m 0 min 0 min 0 W/m 0,0 km/h (0 Bft) 97,87 %
04.09.2020 23:46 17,0 C 15,6 C 15,0 C 85 % 1019,7 hPa 0,0 l/m 0 min 0 min 0 W/m 0,0 km/h (0 Bft) 100,00 %
04.09.2020 23:48 16,9 C 15,6 C 15,0 C 85 % 1019,6 hPa 0,0 l/m 0 min 0 min 0 W/m 0,0 km/h (0 Bft) 100,00 %
04.09.2020 23:50 16,9 C 15,6 C 15,0 C 85 % 1019,5 hPa 0,0 l/m 0 min 0 min 0 W/m 0,0 km/h (0 Bft) 100,00 %
04.09.2020 23:52 16,9 C 15,6 C 15,0 C 84 % 1019,5 hPa 0,0 l/m 0 min 0 min 0 W/m 0,0 km/h (0 Bft) 100,00 %
04.09.2020 23:54 16,9 C 15,0 C 15,0 C 84 % 1019,4 hPa 0,0 l/m 0 min 0 min 0 W/m 0,0 km/h (0 Bft) 97,87 %
04.09.2020 23:56 16,8 C 15,0 C 15,0 C 84 % 1019,4 hPa 0,0 l/m 0 min 0 min 0 W/m 0,0 km/h (0 Bft) 97,87 %
04.09.2020 23:58 16,8 C 15,0 C 15,0 C 84 % 1019,4 hPa 0,0 l/m 0 min 0 min 0 W/m 0,0 km/h (0 Bft) 100,00 %
_ Min-Zeit 23:56 23:54 23:34 00:00 00:00 - - - - 05:54 10:12
Minimum _ 16,8 C 15,0 C 15,0 C 83 % 1019,3 hPa - - - - 0,0 km/h (0 Bft) 89,36 %
_ Max-Zeit 18:42 14:34 14:54 11:32 12:14 06:26 18:08 05:14 14:54 00:40 00:56
Maximum _ 21,3 C 23,9 C 20,0 C 100 % 1021,9 hPa 0,2 l/m 4 min 2 min 557 W/m 35,4 km/h
S-SO (5 Bft)
100,00 %
Durchschnitt _ 19,4 C 18,6 C 17,8 C 91 % 1020,4 hPa #2,2 l/m #1:42 h #1:04 h 144 W/m 9,1 km/h (2 Bft) 97,52 %
© 2020 W. Hausmann